Wetterdaten: aktuell Samstag, 20.07.2019 10:09
Datum Zeit Temp. 2m Luftf.2m Luftdruck Regen Wind Richtung Richtung Taupunkt Windchill
20.07.2019 10:09 24,5 C 62 % 1016,6 hPa 0,0 l/m 0,0 km/h (0 Bft) O-NO 65 16,7 C 24,5 C
20.07.2019 10:08 24,4 C 62 % 1016,6 hPa 0,0 l/m 0,0 km/h (0 Bft) O-NO 65 16,6 C 24,4 C
20.07.2019 10:07 24,4 C 63 % 1016,6 hPa 0,0 l/m 0,0 km/h (0 Bft) O-NO 65 16,9 C 24,4 C
20.07.2019 10:06 24,4 C 63 % 1016,6 hPa 0,0 l/m 0,0 km/h (0 Bft) O-NO 65 16,9 C 24,4 C
20.07.2019 10:05 24,3 C 63 % 1016,6 hPa 0,0 l/m 1,7 km/h (1 Bft) O-NO 65 16,8 C 24,3 C
20.07.2019 10:04 24,3 C 64 % 1016,6 hPa 0,0 l/m 3,1 km/h (1 Bft) O-NO 65 17,0 C 24,3 C
20.07.2019 10:03 24,3 C 64 % 1016,6 hPa 0,0 l/m 3,1 km/h (1 Bft) O-NO 65 17,0 C 24,3 C
20.07.2019 10:02 24,2 C 64 % 1016,6 hPa 0,0 l/m 4,8 km/h (1 Bft) O-NO 65 16,9 C 24,2 C
20.07.2019 10:01 24,1 C 65 % 1016,6 hPa 0,0 l/m 3,1 km/h (1 Bft) O-NO 67 17,1 C 24,1 C
20.07.2019 10:00 24,1 C 65 % 1016,5 hPa 0,0 l/m 0,0 km/h (0 Bft) O-NO 67 17,1 C 24,1 C
20.07.2019 09:59 24,0 C 65 % 1016,6 hPa 0,0 l/m 3,1 km/h (1 Bft) O-NO 67 17,0 C 24,0 C
20.07.2019 09:58 24,0 C 65 % 1016,6 hPa 0,0 l/m 0,0 km/h (0 Bft) O-NO 67 17,0 C 24,0 C
20.07.2019 09:57 23,9 C 65 % 1016,5 hPa 0,0 l/m 0,0 km/h (0 Bft) O-NO 67 16,9 C 23,9 C
20.07.2019 09:56 23,9 C 64 % 1016,6 hPa 0,0 l/m 3,1 km/h (1 Bft) O-NO 67 16,7 C 23,9 C
20.07.2019 09:55 23,8 C 65 % 1016,6 hPa 0,0 l/m 6,5 km/h (2 Bft) O-NO 67 16,8 C 23,8 C
20.07.2019 09:54 23,7 C 64 % 1016,6 hPa 0,0 l/m 3,1 km/h (1 Bft) O-NO 67 16,5 C 23,7 C
20.07.2019 09:53 23,6 C 64 % 1016,6 hPa 0,0 l/m 1,7 km/h (1 Bft) O-NO 67 16,4 C 23,6 C
20.07.2019 09:52 23,6 C 64 % 1016,6 hPa 0,0 l/m 0,0 km/h (0 Bft) O-NO 67 16,4 C 23,6 C
20.07.2019 09:51 23,6 C 65 % 1016,6 hPa 0,0 l/m 1,7 km/h (1 Bft) O-NO 67 16,6 C 23,6 C
20.07.2019 09:50 23,5 C 65 % 1016,6 hPa 0,0 l/m 1,7 km/h (1 Bft) O-NO 66 16,5 C 23,5 C
20.07.2019 09:49 23,5 C 66 % 1016,6 hPa 0,0 l/m 1,7 km/h (1 Bft) O-NO 66 16,8 C 23,5 C
20.07.2019 09:48 23,4 C 68 % 1016,6 hPa 0,0 l/m 3,1 km/h (1 Bft) O-NO 66 17,1 C 23,4 C
20.07.2019 09:47 23,4 C 66 % 1016,7 hPa 0,0 l/m 0,0 km/h (0 Bft) O-NO 66 16,7 C 23,4 C
20.07.2019 09:46 23,3 C 66 % 1016,6 hPa 0,0 l/m 4,8 km/h (1 Bft) O-NO 66 16,6 C 23,3 C
20.07.2019 09:45 23,3 C 67 % 1016,6 hPa 0,0 l/m 3,1 km/h (1 Bft) O-NO 66 16,8 C 23,3 C
20.07.2019 09:44 23,2 C 68 % 1016,7 hPa 0,0 l/m 1,7 km/h (1 Bft) O-NO 66 17,0 C 23,2 C
20.07.2019 09:43 23,1 C 67 % 1016,7 hPa 0,0 l/m 1,7 km/h (1 Bft) O-NO 66 16,6 C 23,1 C
20.07.2019 09:42 23,1 C 67 % 1016,7 hPa 0,0 l/m 0,0 km/h (0 Bft) O-NO 66 16,6 C 23,1 C
20.07.2019 09:41 23,0 C 67 % 1016,7 hPa 0,0 l/m 0,0 km/h (0 Bft) O-NO 66 16,5 C 23,0 C
20.07.2019 09:40 23,0 C 67 % 1016,7 hPa 0,0 l/m 0,0 km/h (0 Bft) O-NO 66 16,5 C 23,0 C
20.07.2019 09:39 23,0 C 67 % 1016,7 hPa 0,0 l/m 6,5 km/h (2 Bft) O-NO 66 16,5 C 23,0 C
20.07.2019 09:38 23,0 C 67 % 1016,7 hPa 0,0 l/m 1,7 km/h (1 Bft) O-NO 67 16,5 C 23,0 C
20.07.2019 09:37 22,9 C 67 % 1016,6 hPa 0,0 l/m 3,1 km/h (1 Bft) O-NO 67 16,4 C 22,9 C
20.07.2019 09:36 22,9 C 66 % 1016,7 hPa 0,0 l/m 4,8 km/h (1 Bft) O-NO 67 16,2 C 22,9 C
20.07.2019 09:35 22,9 C 68 % 1016,6 hPa 0,0 l/m 3,1 km/h (1 Bft) O-NO 67 16,7 C 22,9 C
20.07.2019 09:34 22,9 C 69 % 1016,6 hPa 0,0 l/m 6,5 km/h (2 Bft) O-NO 67 16,9 C 22,9 C
20.07.2019 09:33 22,8 C 69 % 1016,6 hPa 0,0 l/m 6,5 km/h (2 Bft) O-NO 67 16,8 C 22,8 C
20.07.2019 09:32 22,8 C 68 % 1016,6 hPa 0,0 l/m 3,1 km/h (1 Bft) O-NO 67 16,6 C 22,8 C
20.07.2019 09:31 22,6 C 69 % 1016,6 hPa 0,0 l/m 1,7 km/h (1 Bft) O-NO 70 16,6 C 22,6 C
20.07.2019 09:30 22,6 C 70 % 1016,6 hPa 0,0 l/m 4,8 km/h (1 Bft) O-NO 70 16,8 C 22,6 C
20.07.2019 09:29 22,5 C 70 % 1016,6 hPa 0,0 l/m 1,7 km/h (1 Bft) O-NO 70 16,7 C 22,5 C
20.07.2019 09:28 22,4 C 70 % 1016,7 hPa 0,0 l/m 0,0 km/h (0 Bft) O-NO 70 16,7 C 22,4 C
20.07.2019 09:27 22,4 C 70 % 1016,7 hPa 0,0 l/m 4,8 km/h (1 Bft) O-NO 70 16,7 C 22,4 C
20.07.2019 09:26 22,3 C 70 % 1016,6 hPa 0,0 l/m 1,7 km/h (1 Bft) O-NO 61 16,6 C 22,3 C
20.07.2019 09:25 22,3 C 69 % 1016,7 hPa 0,0 l/m 0,0 km/h (0 Bft) O-NO 61 16,3 C 22,3 C
20.07.2019 09:24 22,2 C 69 % 1016,7 hPa 0,0 l/m 1,7 km/h (1 Bft) O-NO 61 16,2 C 22,2 C
20.07.2019 09:23 22,2 C 69 % 1016,7 hPa 0,0 l/m 4,8 km/h (1 Bft) O-NO 61 16,2 C 22,2 C
20.07.2019 09:22 22,2 C 70 % 1016,6 hPa 0,0 l/m 6,5 km/h (2 Bft) O-NO 61 16,5 C 22,2 C
20.07.2019 09:21 22,1 C 71 % 1016,6 hPa 0,0 l/m 1,7 km/h (1 Bft) O-NO 61 16,6 C 22,1 C
20.07.2019 09:20 22,1 C 70 % 1016,6 hPa 0,0 l/m 1,7 km/h (1 Bft) O-NO 61 16,4 C 22,1 C
20.07.2019 09:19 22,0 C 70 % 1016,6 hPa 0,0 l/m 3,1 km/h (1 Bft) O-NO 57 16,3 C 22,0 C
20.07.2019 09:18 22,0 C 71 % 1016,6 hPa 0,0 l/m 6,5 km/h (2 Bft) O-NO 57 16,5 C 22,0 C
20.07.2019 09:17 22,0 C 71 % 1016,7 hPa 0,0 l/m 4,8 km/h (1 Bft) O-NO 61 16,5 C 22,0 C
20.07.2019 09:16 22,0 C 71 % 1016,6 hPa 0,0 l/m 3,1 km/h (1 Bft) O-NO 61 16,5 C 22,0 C
20.07.2019 09:15 22,0 C 71 % 1016,7 hPa 0,0 l/m 6,5 km/h (2 Bft) O-NO 62 16,5 C 22,0 C
20.07.2019 09:14 21,9 C 71 % 1016,6 hPa 0,0 l/m 8,0 km/h (2 Bft) O-NO 61 16,4 C 21,3 C
20.07.2019 09:13 21,9 C 71 % 1016,6 hPa 0,0 l/m 3,1 km/h (1 Bft) O-NO 61 16,4 C 21,9 C
20.07.2019 09:12 21,9 C 72 % 1016,6 hPa 0,0 l/m 3,1 km/h (1 Bft) O-NO 61 16,6 C 21,9 C
20.07.2019 09:11 21,8 C 73 % 1016,6 hPa 0,0 l/m 8,0 km/h (2 Bft) O-NO 61 16,7 C 21,2 C
20.07.2019 09:10 21,8 C 73 % 1016,6 hPa 0,0 l/m 3,1 km/h (1 Bft) O-NO 65 16,7 C 21,8 C
20.07.2019 09:09 21,7 C 72 % 1016,6 hPa 0,0 l/m 3,1 km/h (1 Bft) O-NO 65 16,4 C 21,7 C
20.07.2019 09:08 21,7 C 73 % 1016,7 hPa 0,0 l/m 4,8 km/h (1 Bft) O-NO 66 16,6 C 21,7 C
20.07.2019 09:07 21,6 C 73 % 1016,6 hPa 0,0 l/m 1,7 km/h (1 Bft) O-NO 67 16,5 C 21,6 C
20.07.2019 09:06 21,6 C 73 % 1016,6 hPa 0,0 l/m 3,1 km/h (1 Bft) O-NO 67 16,5 C 21,6 C
20.07.2019 09:05 21,5 C 73 % 1016,7 hPa 0,0 l/m 1,7 km/h (1 Bft) O-NO 64 16,4 C 21,5 C
20.07.2019 09:04 21,4 C 73 % 1016,7 hPa 0,0 l/m 0,0 km/h (0 Bft) O-NO 64 16,4 C 21,4 C
20.07.2019 09:03 21,4 C 73 % 1016,6 hPa 0,0 l/m 1,7 km/h (1 Bft) O-NO 65 16,4 C 21,4 C
20.07.2019 09:02 21,3 C 73 % 1016,6 hPa 0,0 l/m 4,8 km/h (1 Bft) O-NO 64 16,3 C 21,3 C
20.07.2019 09:01 21,3 C 73 % 1016,7 hPa 0,0 l/m 6,5 km/h (2 Bft) O-NO 64 16,3 C 21,3 C
20.07.2019 09:00 21,2 C 75 % 1016,7 hPa 0,0 l/m 1,7 km/h (1 Bft) O-NO 64 16,6 C 21,2 C
20.07.2019 08:59 21,1 C 75 % 1016,6 hPa 0,0 l/m 0,0 km/h (0 Bft) O-NO 64 16,5 C 21,1 C
20.07.2019 08:58 21,1 C 76 % 1016,7 hPa 0,0 l/m 0,0 km/h (0 Bft) O-NO 64 16,7 C 21,1 C
20.07.2019 08:57 21,0 C 77 % 1016,7 hPa 0,0 l/m 0,0 km/h (0 Bft) O-NO 64 16,8 C 21,0 C
20.07.2019 08:56 21,0 C 77 % 1016,7 hPa 0,0 l/m 0,0 km/h (0 Bft) O-NO 64 16,8 C 21,0 C
20.07.2019 08:55 20,9 C 77 % 1016,7 hPa 0,0 l/m 0,0 km/h (0 Bft) O-NO 64 16,7 C 20,9 C
20.07.2019 08:54 20,9 C 76 % 1016,7 hPa 0,0 l/m 0,0 km/h (0 Bft) O-NO 63 16,5 C 20,9 C
20.07.2019 08:53 20,8 C 76 % 1016,7 hPa 0,0 l/m 0,0 km/h (0 Bft) O-NO 63 16,4 C 20,8 C
20.07.2019 08:52 20,8 C 76 % 1016,7 hPa 0,0 l/m 0,0 km/h (0 Bft) O-NO 63 16,4 C 20,8 C
20.07.2019 08:51 20,8 C 76 % 1016,7 hPa 0,0 l/m 0,0 km/h (0 Bft) O-NO 63 16,4 C 20,8 C
20.07.2019 08:50 20,7 C 77 % 1016,7 hPa 0,0 l/m 1,7 km/h (1 Bft) O-NO 63 16,5 C 20,7 C
20.07.2019 08:49 20,6 C 78 % 1016,7 hPa 0,0 l/m 0,0 km/h (0 Bft) O-NO 62 16,6 C 20,6 C
20.07.2019 08:48 20,6 C 76 % 1016,8 hPa 0,0 l/m 0,0 km/h (0 Bft) O-NO 61 16,2 C 20,6 C
20.07.2019 08:46 20,5 C 77 % 1016,7 hPa 0,0 l/m 0,0 km/h (0 Bft) O-NO 61 16,3 C 20,5 C
20.07.2019 08:45 20,5 C 77 % 1016,7 hPa 0,0 l/m 3,1 km/h (1 Bft) O-NO 59 16,3 C 20,5 C
20.07.2019 08:44 20,4 C 78 % 1016,7 hPa 0,0 l/m 0,0 km/h (0 Bft) O-NO 59 16,4 C 20,4 C
20.07.2019 08:43 20,4 C 78 % 1016,7 hPa 0,0 l/m 0,0 km/h (0 Bft) O-NO 59 16,4 C 20,4 C
20.07.2019 08:42 20,3 C 77 % 1016,7 hPa 0,0 l/m 0,0 km/h (0 Bft) O-NO 59 16,1 C 20,3 C
20.07.2019 08:41 20,3 C 77 % 1016,7 hPa 0,0 l/m 0,0 km/h (0 Bft) O-NO 59 16,1 C 20,3 C
20.07.2019 08:40 20,3 C 77 % 1016,7 hPa 0,0 l/m 6,5 km/h (2 Bft) O-NO 59 16,1 C 20,3 C
20.07.2019 08:39 20,2 C 78 % 1016,7 hPa 0,0 l/m 1,7 km/h (1 Bft) O-NO 59 16,2 C 20,2 C
20.07.2019 08:38 20,1 C 78 % 1016,7 hPa 0,0 l/m 6,5 km/h (2 Bft) O-NO 59 16,1 C 20,1 C
20.07.2019 08:37 20,1 C 78 % 1016,7 hPa 0,0 l/m 0,0 km/h (0 Bft) O-NO 59 16,1 C 20,1 C
20.07.2019 08:36 20,1 C 78 % 1016,7 hPa 0,0 l/m 3,1 km/h (1 Bft) O-NO 59 16,1 C 20,1 C
20.07.2019 08:35 20,0 C 78 % 1016,7 hPa 0,0 l/m 6,5 km/h (2 Bft) O-NO 59 16,0 C 20,0 C
20.07.2019 08:34 20,0 C 78 % 1016,7 hPa 0,0 l/m 0,0 km/h (0 Bft) O-NO 59 16,0 C 20,0 C
20.07.2019 08:33 19,9 C 79 % 1016,7 hPa 0,0 l/m 3,1 km/h (1 Bft) O-NO 59 16,1 C 19,9 C
20.07.2019 08:32 19,9 C 79 % 1016,7 hPa 0,0 l/m 0,0 km/h (0 Bft) O-NO 63 16,1 C 19,9 C
20.07.2019 08:31 19,8 C 80 % 1016,8 hPa 0,0 l/m 0,0 km/h (0 Bft) O-NO 63 16,2 C 19,8 C
20.07.2019 08:30 19,8 C 81 % 1016,8 hPa 0,0 l/m 0,0 km/h (0 Bft) O-NO 63 16,4 C 19,8 C
20.07.2019 08:29 19,7 C 81 % 1016,8 hPa 0,0 l/m 0,0 km/h (0 Bft) O-NO 66 16,3 C 19,7 C
20.07.2019 08:28 19,6 C 80 % 1016,8 hPa 0,0 l/m 0,0 km/h (0 Bft) O-NO 66 16,1 C 19,6 C
20.07.2019 08:27 19,5 C 80 % 1016,8 hPa 0,0 l/m 0,0 km/h (0 Bft) O-NO 66 16,0 C 19,5 C
20.07.2019 08:26 19,5 C 81 % 1016,7 hPa 0,0 l/m 0,0 km/h (0 Bft) O-NO 66 16,1 C 19,5 C
20.07.2019 08:25 19,5 C 81 % 1016,8 hPa 0,0 l/m 0,0 km/h (0 Bft) O-NO 66 16,1 C 19,5 C
20.07.2019 08:24 19,4 C 82 % 1016,8 hPa 0,0 l/m 0,0 km/h (0 Bft) O-NO 66 16,2 C 19,4 C
20.07.2019 08:23 19,4 C 82 % 1016,8 hPa 0,0 l/m 0,0 km/h (0 Bft) O-NO 66 16,2 C 19,4 C
20.07.2019 08:22 19,4 C 83 % 1016,8 hPa 0,0 l/m 0,0 km/h (0 Bft) O-NO 66 16,4 C 19,4 C
20.07.2019 08:21 19,3 C 84 % 1016,8 hPa 0,0 l/m 0,0 km/h (0 Bft) O-NO 66 16,5 C 19,3 C
20.07.2019 08:20 19,3 C 84 % 1016,8 hPa 0,0 l/m 0,0 km/h (0 Bft) O-NO 66 16,5 C 19,3 C
20.07.2019 08:19 19,2 C 84 % 1016,8 hPa 0,0 l/m 0,0 km/h (0 Bft) O-NO 66 16,4 C 19,2 C
20.07.2019 08:18 19,1 C 85 % 1016,7 hPa 0,0 l/m 0,0 km/h (0 Bft) O-NO 66 16,5 C 19,1 C
20.07.2019 08:17 19,1 C 85 % 1016,8 hPa 0,0 l/m 0,0 km/h (0 Bft) O-NO 66 16,5 C 19,1 C
20.07.2019 08:16 19,0 C 85 % 1016,7 hPa 0,0 l/m 0,0 km/h (0 Bft) O-NO 66 16,4 C 19,0 C
20.07.2019 08:15 18,9 C 85 % 1016,8 hPa 0,0 l/m 0,0 km/h (0 Bft) O-NO 66 16,3 C 18,9 C
20.07.2019 08:14 18,9 C 85 % 1016,8 hPa 0,0 l/m 0,0 km/h (0 Bft) O-NO 66 16,3 C 18,9 C
20.07.2019 08:13 18,8 C 86 % 1016,7 hPa 0,0 l/m 0,0 km/h (0 Bft) O-NO 66 16,4 C 18,8 C
20.07.2019 08:12 18,8 C 87 % 1016,7 hPa 0,0 l/m 0,0 km/h (0 Bft) O-NO 66 16,6 C 18,8 C
20.07.2019 08:11 18,7 C 87 % 1016,7 hPa 0,0 l/m 0,0 km/h (0 Bft) O-NO 66 16,5 C 18,7 C
20.07.2019 08:10 18,6 C 88 % 1016,7 hPa 0,0 l/m 0,0 km/h (0 Bft) O-NO 66 16,6 C 18,6 C
20.07.2019 08:09 18,5 C 88 % 1016,7 hPa 0,0 l/m 0,0 km/h (0 Bft) O-NO 66 16,5 C 18,5 C
20.07.2019 08:08 18,5 C 88 % 1016,7 hPa 0,0 l/m 0,0 km/h (0 Bft) O-NO 66 16,5 C 18,5 C
20.07.2019 08:07 18,4 C 88 % 1016,7 hPa 0,0 l/m 0,0 km/h (0 Bft) O-NO 66 16,4 C 18,4 C
20.07.2019 08:06 18,4 C 89 % 1016,7 hPa 0,0 l/m 0,0 km/h (0 Bft) O-NO 66 16,6 C 18,4 C
20.07.2019 08:05 18,3 C 89 % 1016,7 hPa 0,0 l/m 0,0 km/h (0 Bft) O-NO 66 16,5 C 18,3 C
20.07.2019 08:04 18,2 C 89 % 1016,7 hPa 0,0 l/m 0,0 km/h (0 Bft) O-NO 66 16,4 C 18,2 C
20.07.2019 08:03 18,1 C 88 % 1016,7 hPa 0,0 l/m 0,0 km/h (0 Bft) O-NO 66 16,1 C 18,1 C
20.07.2019 08:02 18,0 C 88 % 1016,7 hPa 0,0 l/m 0,0 km/h (0 Bft) O-NO 66 16,0 C 18,0 C
20.07.2019 08:01 17,9 C 89 % 1016,7 hPa 0,0 l/m 0,0 km/h (0 Bft) O-NO 66 16,1 C 17,9 C
20.07.2019 08:00 17,9 C 89 % 1016,7 hPa 0,0 l/m 0,0 km/h (0 Bft) O-NO 66 16,1 C 17,9 C
20.07.2019 07:59 17,9 C 89 % 1016,7 hPa 0,0 l/m 0,0 km/h (0 Bft) O-NO 66 16,1 C 17,9 C
20.07.2019 07:58 17,8 C 89 % 1016,7 hPa 0,0 l/m 0,0 km/h (0 Bft) O-NO 66 16,0 C 17,8 C
20.07.2019 07:57 17,7 C 89 % 1016,7 hPa 0,0 l/m 0,0 km/h (0 Bft) O-NO 66 15,9 C 17,7 C
20.07.2019 07:56 17,6 C 89 % 1016,7 hPa 0,0 l/m 0,0 km/h (0 Bft) O-NO 66 15,8 C 17,6 C
20.07.2019 07:55 17,6 C 89 % 1016,7 hPa 0,0 l/m 0,0 km/h (0 Bft) O-NO 66 15,8 C 17,6 C
20.07.2019 07:54 17,5 C 89 % 1016,8 hPa 0,0 l/m 0,0 km/h (0 Bft) O-NO 66 15,7 C 17,5 C
20.07.2019 07:53 17,5 C 89 % 1016,7 hPa 0,0 l/m 0,0 km/h (0 Bft) O-NO 66 15,7 C 17,5 C
20.07.2019 07:52 17,4 C 89 % 1016,7 hPa 0,0 l/m 0,0 km/h (0 Bft) O-NO 66 15,6 C 17,4 C
20.07.2019 07:51 17,4 C 89 % 1016,8 hPa 0,0 l/m 0,0 km/h (0 Bft) O-NO 66 15,6 C 17,4 C
20.07.2019 07:50 17,4 C 89 % 1016,8 hPa 0,0 l/m 0,0 km/h (0 Bft) O-NO 66 15,6 C 17,4 C
20.07.2019 07:49 17,3 C 90 % 1016,7 hPa 0,0 l/m 0,0 km/h (0 Bft) O-NO 66 15,6 C 17,3 C
20.07.2019 07:48 17,3 C 90 % 1016,7 hPa 0,0 l/m 0,0 km/h (0 Bft) O-NO 66 15,6 C 17,3 C
20.07.2019 07:47 17,3 C 90 % 1016,7 hPa 0,0 l/m 0,0 km/h (0 Bft) O-NO 66 15,6 C 17,3 C
20.07.2019 07:46 17,2 C 90 % 1016,7 hPa 0,0 l/m 0,0 km/h (0 Bft) O-NO 66 15,5 C 17,2 C
20.07.2019 07:45 17,1 C 90 % 1016,7 hPa 0,0 l/m 0,0 km/h (0 Bft) O-NO 66 15,4 C 17,1 C
20.07.2019 07:44 17,1 C 90 % 1016,7 hPa 0,0 l/m 0,0 km/h (0 Bft) O-NO 66 15,4 C 17,1 C
20.07.2019 07:43 17,1 C 90 % 1016,7 hPa 0,0 l/m 0,0 km/h (0 Bft) O-NO 66 15,4 C 17,1 C
20.07.2019 07:42 17,0 C 90 % 1016,7 hPa 0,0 l/m 0,0 km/h (0 Bft) O-NO 66 15,3 C 17,0 C
20.07.2019 07:41 17,0 C 91 % 1016,7 hPa 0,0 l/m 0,0 km/h (0 Bft) O-NO 66 15,5 C 17,0 C
20.07.2019 07:40 16,9 C 91 % 1016,7 hPa 0,0 l/m 0,0 km/h (0 Bft) O-NO 66 15,4 C 16,9 C
20.07.2019 07:39 16,9 C 91 % 1016,7 hPa 0,0 l/m 0,0 km/h (0 Bft) O-NO 66 15,4 C 16,9 C
20.07.2019 07:38 16,9 C 91 % 1016,7 hPa 0,0 l/m 0,0 km/h (0 Bft) O-NO 69 15,4 C 16,9 C
20.07.2019 07:37 16,8 C 91 % 1016,7 hPa 0,0 l/m 0,0 km/h (0 Bft) O-NO 69 15,3 C 16,8 C
20.07.2019 07:36 16,8 C 91 % 1016,7 hPa 0,0 l/m 0,0 km/h (0 Bft) O-NO 69 15,3 C 16,8 C
20.07.2019 07:35 16,8 C 91 % 1016,7 hPa 0,0 l/m 0,0 km/h (0 Bft) O-NO 69 15,3 C 16,8 C
20.07.2019 07:34 16,8 C 91 % 1016,7 hPa 0,0 l/m 0,0 km/h (0 Bft) O-NO 69 15,3 C 16,8 C
20.07.2019 07:33 16,7 C 91 % 1016,7 hPa 0,0 l/m 0,0 km/h (0 Bft) O-NO 69 15,2 C 16,7 C
20.07.2019 07:32 16,6 C 91 % 1016,7 hPa 0,0 l/m 0,0 km/h (0 Bft) O-NO 69 15,1 C 16,6 C
20.07.2019 07:31 16,6 C 91 % 1016,7 hPa 0,0 l/m 0,0 km/h (0 Bft) O-NO 69 15,1 C 16,6 C
20.07.2019 07:30 16,6 C 91 % 1016,7 hPa 0,0 l/m 0,0 km/h (0 Bft) O-NO 69 15,1 C 16,6 C
20.07.2019 07:29 16,6 C 91 % 1016,7 hPa 0,0 l/m 0,0 km/h (0 Bft) O-NO 69 15,1 C 16,6 C
20.07.2019 07:28 16,6 C 91 % 1016,7 hPa 0,0 l/m 0,0 km/h (0 Bft) O-NO 69 15,1 C 16,6 C
20.07.2019 07:27 16,5 C 91 % 1016,7 hPa 0,0 l/m 0,0 km/h (0 Bft) O-NO 69 15,0 C 16,5 C
20.07.2019 07:26 16,5 C 91 % 1016,7 hPa 0,0 l/m 0,0 km/h (0 Bft) O-NO 69 15,0 C 16,5 C
20.07.2019 07:25 16,5 C 91 % 1016,7 hPa 0,0 l/m 0,0 km/h (0 Bft) O-NO 69 15,0 C 16,5 C
20.07.2019 07:24 16,5 C 92 % 1016,7 hPa 0,0 l/m 0,0 km/h (0 Bft) O-NO 69 15,2 C 16,5 C
20.07.2019 07:23 16,5 C 92 % 1016,7 hPa 0,0 l/m 0,0 km/h (0 Bft) O-NO 69 15,2 C 16,5 C
20.07.2019 07:22 16,5 C 92 % 1016,6 hPa 0,0 l/m 0,0 km/h (0 Bft) O-NO 69 15,2 C 16,5 C
20.07.2019 07:21 16,4 C 92 % 1016,7 hPa 0,0 l/m 0,0 km/h (0 Bft) O-NO 69 15,1 C 16,4 C
20.07.2019 07:20 16,4 C 92 % 1016,7 hPa 0,0 l/m 0,0 km/h (0 Bft) O-NO 69 15,1 C 16,4 C
20.07.2019 07:19 16,4 C 92 % 1016,6 hPa 0,0 l/m 0,0 km/h (0 Bft) O-NO 69 15,1 C 16,4 C
20.07.2019 07:18 16,4 C 92 % 1016,6 hPa 0,0 l/m 0,0 km/h (0 Bft) O-NO 69 15,1 C 16,4 C
20.07.2019 07:17 16,4 C 92 % 1016,6 hPa 0,0 l/m 0,0 km/h (0 Bft) O-NO 69 15,1 C 16,4 C
20.07.2019 07:16 16,3 C 92 % 1016,6 hPa 0,0 l/m 0,0 km/h (0 Bft) O-NO 69 15,0 C 16,3 C
20.07.2019 07:15 16,3 C 93 % 1016,6 hPa 0,0 l/m 0,0 km/h (0 Bft) O-NO 69 15,2 C 16,3 C
20.07.2019 07:14 16,3 C 93 % 1016,6 hPa 0,0 l/m 0,0 km/h (0 Bft) O-NO 69 15,2 C 16,3 C
20.07.2019 07:13 16,2 C 93 % 1016,6 hPa 0,0 l/m 0,0 km/h (0 Bft) O-NO 69 15,1 C 16,2 C
20.07.2019 07:12 16,2 C 93 % 1016,6 hPa 0,0 l/m 0,0 km/h (0 Bft) O-NO 69 15,1 C 16,2 C
20.07.2019 07:11 16,1 C 93 % 1016,6 hPa 0,0 l/m 0,0 km/h (0 Bft) O-NO 69 15,0 C 16,1 C
20.07.2019 07:10 16,1 C 93 % 1016,6 hPa 0,0 l/m 0,0 km/h (0 Bft) O-NO 69 15,0 C 16,1 C
20.07.2019 07:09 16,1 C 93 % 1016,6 hPa 0,0 l/m 0,0 km/h (0 Bft) O-NO 69 15,0 C 16,1 C
20.07.2019 07:08 16,0 C 93 % 1016,6 hPa 0,0 l/m 0,0 km/h (0 Bft) O-NO 69 14,9 C 16,0 C
20.07.2019 07:07 16,0 C 93 % 1016,5 hPa 0,0 l/m 0,0 km/h (0 Bft) O-NO 69 14,9 C 16,0 C
20.07.2019 07:06 16,0 C 93 % 1016,6 hPa 0,0 l/m 0,0 km/h (0 Bft) O-NO 69 14,9 C 16,0 C
20.07.2019 07:05 16,0 C 94 % 1016,6 hPa 0,0 l/m 0,0 km/h (0 Bft) O-NO 69 15,0 C 16,0 C
20.07.2019 07:04 15,9 C 94 % 1016,6 hPa 0,0 l/m 0,0 km/h (0 Bft) O-NO 69 14,9 C 15,9 C
20.07.2019 07:03 15,9 C 93 % 1016,6 hPa 0,0 l/m 0,0 km/h (0 Bft) O-NO 69 14,8 C 15,9 C
20.07.2019 07:02 15,9 C 94 % 1016,6 hPa 0,0 l/m 0,0 km/h (0 Bft) O-NO 69 14,9 C 15,9 C
20.07.2019 07:01 15,8 C 94 % 1016,6 hPa 0,0 l/m 0,0 km/h (0 Bft) O-NO 69 14,8 C 15,8 C
20.07.2019 07:00 15,7 C 94 % 1016,6 hPa 0,0 l/m 0,0 km/h (0 Bft) O-NO 69 14,7 C 15,7 C
20.07.2019 06:59 15,6 C 94 % 1016,6 hPa 0,0 l/m 0,0 km/h (0 Bft) O-NO 69 14,6 C 15,6 C
20.07.2019 06:58 15,5 C 93 % 1016,6 hPa 0,0 l/m 0,0 km/h (0 Bft) O-NO 69 14,4 C 15,5 C
20.07.2019 06:57 15,5 C 93 % 1016,6 hPa 0,0 l/m 0,0 km/h (0 Bft) O-NO 69 14,4 C 15,5 C
20.07.2019 06:56 15,5 C 93 % 1016,6 hPa 0,0 l/m 0,0 km/h (0 Bft) O-NO 69 14,4 C 15,5 C
20.07.2019 06:55 15,4 C 93 % 1016,6 hPa 0,0 l/m 0,0 km/h (0 Bft) O-NO 69 14,3 C 15,4 C
20.07.2019 06:54 15,4 C 93 % 1016,6 hPa 0,0 l/m 0,0 km/h (0 Bft) O-NO 69 14,3 C 15,4 C
20.07.2019 06:53 15,4 C 93 % 1016,6 hPa 0,0 l/m 0,0 km/h (0 Bft) O-NO 69 14,3 C 15,4 C
20.07.2019 06:52 15,3 C 93 % 1016,6 hPa 0,0 l/m 0,0 km/h (0 Bft) O-NO 69 14,2 C 15,3 C
20.07.2019 06:51 15,3 C 93 % 1016,6 hPa 0,0 l/m 0,0 km/h (0 Bft) O-NO 69 14,2 C 15,3 C
20.07.2019 06:50 15,2 C 93 % 1016,6 hPa 0,0 l/m 0,0 km/h (0 Bft) O-NO 69 14,1 C 15,2 C
20.07.2019 06:49 15,2 C 93 % 1016,5 hPa 0,0 l/m 0,0 km/h (0 Bft) O-NO 69 14,1 C 15,2 C
20.07.2019 06:48 15,1 C 93 % 1016,5 hPa 0,0 l/m 0,0 km/h (0 Bft) O-NO 69 14,0 C 15,1 C
20.07.2019 06:47 15,1 C 93 % 1016,5 hPa 0,0 l/m 0,0 km/h (0 Bft) O-NO 69 14,0 C 15,1 C
20.07.2019 06:46 15,1 C 93 % 1016,5 hPa 0,0 l/m 0,0 km/h (0 Bft) O-NO 69 14,0 C 15,1 C
20.07.2019 06:45 15,0 C 93 % 1016,5 hPa 0,0 l/m 0,0 km/h (0 Bft) O-NO 69 13,9 C 15,0 C
20.07.2019 06:44 15,0 C 93 % 1016,5 hPa 0,0 l/m 0,0 km/h (0 Bft) O-NO 69 13,9 C 15,0 C
20.07.2019 06:43 14,9 C 93 % 1016,5 hPa 0,0 l/m 0,0 km/h (0 Bft) O-NO 69 13,8 C 14,9 C
20.07.2019 06:42 14,9 C 93 % 1016,5 hPa 0,0 l/m 0,0 km/h (0 Bft) O-NO 69 13,8 C 14,9 C
20.07.2019 06:41 14,9 C 93 % 1016,5 hPa 0,0 l/m 0,0 km/h (0 Bft) O-NO 69 13,8 C 14,9 C
20.07.2019 06:40 14,8 C 93 % 1016,4 hPa 0,0 l/m 0,0 km/h (0 Bft) O-NO 69 13,7 C 14,8 C
20.07.2019 06:39 14,8 C 93 % 1016,4 hPa 0,0 l/m 0,0 km/h (0 Bft) O-NO 69 13,7 C 14,8 C
20.07.2019 06:38 14,7 C 92 % 1016,5 hPa 0,0 l/m 0,0 km/h (0 Bft) O-NO 69 13,4 C 14,7 C
20.07.2019 06:37 14,6 C 92 % 1016,5 hPa 0,0 l/m 0,0 km/h (0 Bft) O-NO 69 13,3 C 14,6 C
20.07.2019 06:36 14,6 C 92 % 1016,5 hPa 0,0 l/m 0,0 km/h (0 Bft) O-NO 69 13,3 C 14,6 C
20.07.2019 06:35 14,6 C 92 % 1016,5 hPa 0,0 l/m 0,0 km/h (0 Bft) O-NO 69 13,3 C 14,6 C
20.07.2019 06:34 14,5 C 92 % 1016,5 hPa 0,0 l/m 0,0 km/h (0 Bft) O-NO 69 13,2 C 14,5 C
20.07.2019 06:33 14,5 C 92 % 1016,5 hPa 0,0 l/m 0,0 km/h (0 Bft) O-NO 69 13,2 C 14,5 C
20.07.2019 06:32 14,5 C 92 % 1016,5 hPa 0,0 l/m 0,0 km/h (0 Bft) O-NO 69 13,2 C 14,5 C
20.07.2019 06:31 14,5 C 92 % 1016,5 hPa 0,0 l/m 0,0 km/h (0 Bft) O-NO 69 13,2 C 14,5 C
20.07.2019 06:30 14,5 C 92 % 1016,5 hPa 0,0 l/m 0,0 km/h (0 Bft) O-NO 69 13,2 C 14,5 C
20.07.2019 06:29 14,5 C 92 % 1016,4 hPa 0,0 l/m 0,0 km/h (0 Bft) O-NO 69 13,2 C 14,5 C
20.07.2019 06:28 14,4 C 92 % 1016,4 hPa 0,0 l/m 0,0 km/h (0 Bft) O-NO 69 13,1 C 14,4 C
20.07.2019 06:27 14,4 C 92 % 1016,5 hPa 0,0 l/m 0,0 km/h (0 Bft) O-NO 69 13,1 C 14,4 C
20.07.2019 06:26 14,4 C 92 % 1016,4 hPa 0,0 l/m 0,0 km/h (0 Bft) O-NO 69 13,1 C 14,4 C
20.07.2019 06:25 14,4 C 92 % 1016,4 hPa 0,0 l/m 0,0 km/h (0 Bft) O-NO 69 13,1 C 14,4 C
20.07.2019 06:24 14,4 C 92 % 1016,4 hPa 0,0 l/m 0,0 km/h (0 Bft) O-NO 69 13,1 C 14,4 C
20.07.2019 06:23 14,4 C 92 % 1016,5 hPa 0,0 l/m 0,0 km/h (0 Bft) O-NO 69 13,1 C 14,4 C
20.07.2019 06:22 14,3 C 92 % 1016,4 hPa 0,0 l/m 0,0 km/h (0 Bft) O-NO 69 13,0 C 14,3 C
20.07.2019 06:21 14,3 C 92 % 1016,4 hPa 0,0 l/m 0,0 km/h (0 Bft) O-NO 69 13,0 C 14,3 C
20.07.2019 06:20 14,3 C 92 % 1016,4 hPa 0,0 l/m 0,0 km/h (0 Bft) O-NO 69 13,0 C 14,3 C
20.07.2019 06:19 14,3 C 92 % 1016,4 hPa 0,0 l/m 0,0 km/h (0 Bft) O-NO 69 13,0 C 14,3 C
20.07.2019 06:18 14,3 C 92 % 1016,4 hPa 0,0 l/m 0,0 km/h (0 Bft) O-NO 69 13,0 C 14,3 C
20.07.2019 06:17 14,2 C 91 % 1016,5 hPa 0,0 l/m 0,0 km/h (0 Bft) O-NO 69 12,8 C 14,2 C
20.07.2019 06:16 14,2 C 91 % 1016,4 hPa 0,0 l/m 0,0 km/h (0 Bft) O-NO 69 12,8 C 14,2 C
20.07.2019 06:15 14,2 C 91 % 1016,5 hPa 0,0 l/m 0,0 km/h (0 Bft) O-NO 69 12,8 C 14,2 C
20.07.2019 06:14 14,2 C 91 % 1016,5 hPa 0,0 l/m 0,0 km/h (0 Bft) O-NO 69 12,8 C 14,2 C
20.07.2019 06:12 14,2 C 91 % 1016,5 hPa 0,0 l/m 0,0 km/h (0 Bft) O-NO 69 12,8 C 14,2 C
20.07.2019 06:11 14,1 C 91 % 1016,5 hPa 0,0 l/m 0,0 km/h (0 Bft) O-NO 69 12,7 C 14,1 C
20.07.2019 06:10 14,1 C 91 % 1016,4 hPa 0,0 l/m 0,0 km/h (0 Bft) O-NO 69 12,7 C 14,1 C
20.07.2019 06:09 14,1 C 91 % 1016,5 hPa 0,0 l/m 0,0 km/h (0 Bft) O-NO 69 12,7 C 14,1 C
20.07.2019 06:08 14,1 C 91 % 1016,4 hPa 0,0 l/m 0,0 km/h (0 Bft) O-NO 69 12,7 C 14,1 C
20.07.2019 06:07 14,1 C 91 % 1016,5 hPa 0,0 l/m 0,0 km/h (0 Bft) O-NO 69 12,7 C 14,1 C
20.07.2019 06:06 14,1 C 91 % 1016,5 hPa 0,0 l/m 0,0 km/h (0 Bft) O-NO 69 12,7 C 14,1 C
20.07.2019 06:05 14,1 C 91 % 1016,5 hPa 0,0 l/m 0,0 km/h (0 Bft) O-NO 69 12,7 C 14,1 C
20.07.2019 06:04 14,1 C 91 % 1016,5 hPa 0,0 l/m 0,0 km/h (0 Bft) O-NO 69 12,7 C 14,1 C
20.07.2019 06:03 14,1 C 91 % 1016,5 hPa 0,0 l/m 0,0 km/h (0 Bft) O-NO 69 12,7 C 14,1 C
20.07.2019 06:02 14,1 C 91 % 1016,5 hPa 0,0 l/m 0,0 km/h (0 Bft) O-NO 69 12,7 C 14,1 C
20.07.2019 06:01 14,1 C 91 % 1016,5 hPa 0,0 l/m 0,0 km/h (0 Bft) O-NO 69 12,7 C 14,1 C
20.07.2019 06:00 14,1 C 91 % 1016,5 hPa 0,0 l/m 0,0 km/h (0 Bft) O-NO 69 12,7 C 14,1 C
20.07.2019 05:59 14,1 C 91 % 1016,5 hPa 0,0 l/m 0,0 km/h (0 Bft) O-NO 69 12,7 C 14,1 C
20.07.2019 05:58 14,1 C 91 % 1016,5 hPa 0,0 l/m 0,0 km/h (0 Bft) O-NO 69 12,7 C 14,1 C
20.07.2019 05:57 14,2 C 91 % 1016,5 hPa 0,0 l/m 0,0 km/h (0 Bft) O-NO 69 12,8 C 14,2 C
20.07.2019 05:56 14,2 C 91 % 1016,4 hPa 0,0 l/m 0,0 km/h (0 Bft) O-NO 69 12,8 C 14,2 C
20.07.2019 05:55 14,2 C 91 % 1016,4 hPa 0,0 l/m 0,0 km/h (0 Bft) O-NO 69 12,8 C 14,2 C
20.07.2019 05:54 14,2 C 91 % 1016,4 hPa 0,0 l/m 0,0 km/h (0 Bft) O-NO 69 12,8 C 14,2 C
20.07.2019 05:53 14,2 C 90 % 1016,5 hPa 0,0 l/m 0,0 km/h (0 Bft) O-NO 69 12,6 C 14,2 C
20.07.2019 05:52 14,2 C 90 % 1016,4 hPa 0,0 l/m 0,0 km/h (0 Bft) O-NO 69 12,6 C 14,2 C
20.07.2019 05:51 14,2 C 90 % 1016,4 hPa 0,0 l/m 0,0 km/h (0 Bft) O-NO 69 12,6 C 14,2 C
20.07.2019 05:50 14,2 C 90 % 1016,4 hPa 0,0 l/m 0,0 km/h (0 Bft) O-NO 69 12,6 C 14,2 C
20.07.2019 05:49 14,2 C 90 % 1016,4 hPa 0,0 l/m 0,0 km/h (0 Bft) O-NO 69 12,6 C 14,2 C
20.07.2019 05:48 14,2 C 90 % 1016,4 hPa 0,0 l/m 0,0 km/h (0 Bft) O-NO 69 12,6 C 14,2 C
20.07.2019 05:47 14,3 C 90 % 1016,4 hPa 0,0 l/m 0,0 km/h (0 Bft) O-NO 69 12,7 C 14,3 C
20.07.2019 05:46 14,3 C 90 % 1016,4 hPa 0,0 l/m 0,0 km/h (0 Bft) O-NO 69 12,7 C 14,3 C
20.07.2019 05:45 14,3 C 90 % 1016,4 hPa 0,0 l/m 0,0 km/h (0 Bft) O-NO 69 12,7 C 14,3 C
20.07.2019 05:44 14,3 C 90 % 1016,4 hPa 0,0 l/m 0,0 km/h (0 Bft) O-NO 69 12,7 C 14,3 C
20.07.2019 05:43 14,3 C 90 % 1016,4 hPa 0,0 l/m 0,0 km/h (0 Bft) O-NO 69 12,7 C 14,3 C
20.07.2019 05:42 14,3 C 90 % 1016,4 hPa 0,0 l/m 0,0 km/h (0 Bft) O-NO 69 12,7 C 14,3 C
20.07.2019 05:41 14,3 C 90 % 1016,4 hPa 0,0 l/m 0,0 km/h (0 Bft) O-NO 69 12,7 C 14,3 C
20.07.2019 05:40 14,3 C 90 % 1016,4 hPa 0,0 l/m 0,0 km/h (0 Bft) O-NO 69 12,7 C 14,3 C
20.07.2019 05:38 14,3 C 90 % 1016,4 hPa 0,0 l/m 0,0 km/h (0 Bft) O-NO 69 12,7 C 14,3 C
20.07.2019 05:37 14,3 C 90 % 1016,3 hPa 0,0 l/m 0,0 km/h (0 Bft) O-NO 69 12,7 C 14,3 C
20.07.2019 05:36 14,3 C 90 % 1016,3 hPa 0,0 l/m 0,0 km/h (0 Bft) O-NO 69 12,7 C 14,3 C
20.07.2019 05:35 14,3 C 90 % 1016,3 hPa 0,0 l/m 0,0 km/h (0 Bft) O-NO 69 12,7 C 14,3 C
20.07.2019 05:34 14,4 C 90 % 1016,3 hPa 0,0 l/m 0,0 km/h (0 Bft) O-NO 69 12,8 C 14,4 C
20.07.2019 05:33 14,4 C 90 % 1016,3 hPa 0,0 l/m 0,0 km/h (0 Bft) O-NO 69 12,8 C 14,4 C
20.07.2019 05:32 14,4 C 90 % 1016,3 hPa 0,0 l/m 0,0 km/h (0 Bft) O-NO 69 12,8 C 14,4 C
20.07.2019 05:31 14,4 C 90 % 1016,3 hPa 0,0 l/m 0,0 km/h (0 Bft) O-NO 69 12,8 C 14,4 C
20.07.2019 05:30 14,4 C 90 % 1016,3 hPa 0,0 l/m 0,0 km/h (0 Bft) O-NO 69 12,8 C 14,4 C
20.07.2019 05:29 14,4 C 90 % 1016,3 hPa 0,0 l/m 0,0 km/h (0 Bft) O-NO 69 12,8 C 14,4 C
20.07.2019 05:28 14,4 C 90 % 1016,3 hPa 0,0 l/m 0,0 km/h (0 Bft) O-NO 69 12,8 C 14,4 C
20.07.2019 05:27 14,4 C 90 % 1016,3 hPa 0,0 l/m 0,0 km/h (0 Bft) O-NO 69 12,8 C 14,4 C
20.07.2019 05:26 14,4 C 90 % 1016,3 hPa 0,0 l/m 0,0 km/h (0 Bft) O-NO 69 12,8 C 14,4 C
20.07.2019 05:25 14,5 C 90 % 1016,3 hPa 0,0 l/m 0,0 km/h (0 Bft) O-NO 69 12,9 C 14,5 C
20.07.2019 05:24 14,5 C 90 % 1016,3 hPa 0,0 l/m 0,0 km/h (0 Bft) O-NO 69 12,9 C 14,5 C
20.07.2019 05:23 14,5 C 90 % 1016,3 hPa 0,0 l/m 0,0 km/h (0 Bft) O-NO 69 12,9 C 14,5 C
20.07.2019 05:22 14,5 C 90 % 1016,3 hPa 0,0 l/m 0,0 km/h (0 Bft) O-NO 69 12,9 C 14,5 C
20.07.2019 05:21 14,5 C 90 % 1016,3 hPa 0,0 l/m 0,0 km/h (0 Bft) O-NO 69 12,9 C 14,5 C
20.07.2019 05:20 14,5 C 90 % 1016,3 hPa 0,0 l/m 0,0 km/h (0 Bft) O-NO 69 12,9 C 14,5 C
20.07.2019 05:19 14,5 C 90 % 1016,3 hPa 0,0 l/m 0,0 km/h (0 Bft) O-NO 69 12,9 C 14,5 C
20.07.2019 05:18 14,5 C 90 % 1016,3 hPa 0,0 l/m 0,0 km/h (0 Bft) O-NO 69 12,9 C 14,5 C
20.07.2019 05:17 14,5 C 90 % 1016,3 hPa 0,0 l/m 0,0 km/h (0 Bft) O-NO 69 12,9 C 14,5 C
20.07.2019 05:16 14,5 C 90 % 1016,3 hPa 0,0 l/m 0,0 km/h (0 Bft) O-NO 69 12,9 C 14,5 C
20.07.2019 05:15 14,5 C 90 % 1016,3 hPa 0,0 l/m 0,0 km/h (0 Bft) O-NO 69 12,9 C 14,5 C
20.07.2019 05:14 14,5 C 90 % 1016,3 hPa 0,0 l/m 0,0 km/h (0 Bft) O-NO 69 12,9 C 14,5 C
20.07.2019 05:13 14,5 C 90 % 1016,3 hPa 0,0 l/m 0,0 km/h (0 Bft) O-NO 69 12,9 C 14,5 C
20.07.2019 05:12 14,5 C 90 % 1016,3 hPa 0,0 l/m 0,0 km/h (0 Bft) O-NO 69 12,9 C 14,5 C
20.07.2019 05:11 14,5 C 90 % 1016,3 hPa 0,0 l/m 0,0 km/h (0 Bft) O-NO 69 12,9 C 14,5 C
20.07.2019 05:10 14,5 C 90 % 1016,3 hPa 0,0 l/m 0,0 km/h (0 Bft) O-NO 69 12,9 C 14,5 C
20.07.2019 05:09 14,5 C 90 % 1016,3 hPa 0,0 l/m 0,0 km/h (0 Bft) O-NO 69 12,9 C 14,5 C
20.07.2019 05:08 14,6 C 90 % 1016,3 hPa 0,0 l/m 0,0 km/h (0 Bft) O-NO 69 13,0 C 14,6 C
20.07.2019 05:07 14,6 C 90 % 1016,3 hPa 0,0 l/m 0,0 km/h (0 Bft) O-NO 69 13,0 C 14,6 C
20.07.2019 05:06 14,6 C 90 % 1016,3 hPa 0,0 l/m 0,0 km/h (0 Bft) O-NO 69 13,0 C 14,6 C
20.07.2019 05:05 14,6 C 90 % 1016,3 hPa 0,0 l/m 0,0 km/h (0 Bft) O-NO 69 13,0 C 14,6 C
20.07.2019 05:04 14,6 C 90 % 1016,3 hPa 0,0 l/m 0,0 km/h (0 Bft) O-NO 69 13,0 C 14,6 C
20.07.2019 05:03 14,6 C 90 % 1016,3 hPa 0,0 l/m 0,0 km/h (0 Bft) O-NO 69 13,0 C 14,6 C
20.07.2019 05:02 14,6 C 90 % 1016,2 hPa 0,0 l/m 0,0 km/h (0 Bft) O-NO 69 13,0 C 14,6 C
20.07.2019 05:01 14,6 C 90 % 1016,2 hPa 0,0 l/m 0,0 km/h (0 Bft) O-NO 69 13,0 C 14,6 C
20.07.2019 05:00 14,6 C 89 % 1016,3 hPa 0,0 l/m 0,0 km/h (0 Bft) O-NO 69 12,8 C 14,6 C
20.07.2019 04:59 14,6 C 89 % 1016,3 hPa 0,0 l/m 0,0 km/h (0 Bft) O-NO 69 12,8 C 14,6 C
20.07.2019 04:58 14,6 C 89 % 1016,3 hPa 0,0 l/m 0,0 km/h (0 Bft) O-NO 69 12,8 C 14,6 C
20.07.2019 04:57 14,6 C 89 % 1016,2 hPa 0,0 l/m 0,0 km/h (0 Bft) O-NO 69 12,8 C 14,6 C
20.07.2019 04:56 14,6 C 89 % 1016,2 hPa 0,0 l/m 0,0 km/h (0 Bft) O-NO 69 12,8 C 14,6 C
20.07.2019 04:55 14,6 C 89 % 1016,2 hPa 0,0 l/m 0,0 km/h (0 Bft) O-NO 69 12,8 C 14,6 C
20.07.2019 04:54 14,6 C 89 % 1016,2 hPa 0,0 l/m 0,0 km/h (0 Bft) O-NO 69 12,8 C 14,6 C
20.07.2019 04:52 14,7 C 89 % 1016,2 hPa 0,0 l/m 0,0 km/h (0 Bft) O-NO 69 12,9 C 14,7 C
20.07.2019 04:51 14,7 C 89 % 1016,3 hPa 0,0 l/m 0,0 km/h (0 Bft) O-NO 69 12,9 C 14,7 C
20.07.2019 04:50 14,7 C 89 % 1016,2 hPa 0,0 l/m 0,0 km/h (0 Bft) O-NO 69 12,9 C 14,7 C
20.07.2019 04:49 14,8 C 89 % 1016,2 hPa 0,0 l/m 0,0 km/h (0 Bft) O-NO 69 13,0 C 14,8 C
20.07.2019 04:48 14,8 C 89 % 1016,2 hPa 0,0 l/m 0,0 km/h (0 Bft) O-NO 69 13,0 C 14,8 C
20.07.2019 04:47 14,8 C 89 % 1016,2 hPa 0,0 l/m 0,0 km/h (0 Bft) O-NO 69 13,0 C 14,8 C
20.07.2019 04:46 14,8 C 89 % 1016,2 hPa 0,0 l/m 0,0 km/h (0 Bft) O-NO 69 13,0 C 14,8 C
20.07.2019 04:45 14,8 C 89 % 1016,2 hPa 0,0 l/m 0,0 km/h (0 Bft) O-NO 69 13,0 C 14,8 C
20.07.2019 04:44 14,8 C 89 % 1016,2 hPa 0,0 l/m 0,0 km/h (0 Bft) O-NO 69 13,0 C 14,8 C
20.07.2019 04:43 14,8 C 89 % 1016,2 hPa 0,0 l/m 0,0 km/h (0 Bft) O-NO 69 13,0 C 14,8 C
20.07.2019 04:42 14,8 C 89 % 1016,2 hPa 0,0 l/m 0,0 km/h (0 Bft) O-NO 69 13,0 C 14,8 C
20.07.2019 04:41 14,9 C 89 % 1016,2 hPa 0,0 l/m 0,0 km/h (0 Bft) O-NO 69 13,1 C 14,9 C
20.07.2019 04:40 14,9 C 89 % 1016,2 hPa 0,0 l/m 0,0 km/h (0 Bft) O-NO 69 13,1 C 14,9 C
20.07.2019 04:39 14,9 C 89 % 1016,2 hPa 0,0 l/m 0,0 km/h (0 Bft) O-NO 69 13,1 C 14,9 C
20.07.2019 04:38 14,9 C 89 % 1016,2 hPa 0,0 l/m 0,0 km/h (0 Bft) O-NO 69 13,1 C 14,9 C
20.07.2019 04:37 14,9 C 89 % 1016,2 hPa 0,0 l/m 0,0 km/h (0 Bft) O-NO 69 13,1 C 14,9 C
20.07.2019 04:36 14,9 C 89 % 1016,2 hPa 0,0 l/m 0,0 km/h (0 Bft) O-NO 69 13,1 C 14,9 C
20.07.2019 04:35 14,9 C 89 % 1016,2 hPa 0,0 l/m 0,0 km/h (0 Bft) O-NO 69 13,1 C 14,9 C
20.07.2019 04:34 14,9 C 89 % 1016,2 hPa 0,0 l/m 0,0 km/h (0 Bft) O-NO 69 13,1 C 14,9 C
20.07.2019 04:33 15,0 C 89 % 1016,2 hPa 0,0 l/m 0,0 km/h (0 Bft) O-NO 69 13,2 C 15,0 C
20.07.2019 04:32 15,0 C 89 % 1016,2 hPa 0,0 l/m 0,0 km/h (0 Bft) O-NO 69 13,2 C 15,0 C
20.07.2019 04:31 15,0 C 89 % 1016,2 hPa 0,0 l/m 0,0 km/h (0 Bft) O-NO 69 13,2 C 15,0 C
20.07.2019 04:30 15,0 C 89 % 1016,2 hPa 0,0 l/m 0,0 km/h (0 Bft) O-NO 69 13,2 C 15,0 C
20.07.2019 04:29 15,0 C 89 % 1016,2 hPa 0,0 l/m 0,0 km/h (0 Bft) O-NO 69 13,2 C 15,0 C
20.07.2019 04:28 15,0 C 89 % 1016,2 hPa 0,0 l/m 0,0 km/h (0 Bft) O-NO 69 13,2 C 15,0 C
20.07.2019 04:27 15,0 C 89 % 1016,2 hPa 0,0 l/m 0,0 km/h (0 Bft) O-NO 69 13,2 C 15,0 C
20.07.2019 04:26 15,0 C 89 % 1016,2 hPa 0,0 l/m 0,0 km/h (0 Bft) O-NO 69 13,2 C 15,0 C
20.07.2019 04:25 15,1 C 89 % 1016,2 hPa 0,0 l/m 0,0 km/h (0 Bft) O-NO 69 13,3 C 15,1 C
20.07.2019 04:24 15,1 C 89 % 1016,2 hPa 0,0 l/m 0,0 km/h (0 Bft) O-NO 69 13,3 C 15,1 C
20.07.2019 04:23 15,1 C 89 % 1016,2 hPa 0,0 l/m 0,0 km/h (0 Bft) O-NO 69 13,3 C 15,1 C
20.07.2019 04:22 15,1 C 89 % 1016,2 hPa 0,0 l/m 0,0 km/h (0 Bft) O-NO 69 13,3 C 15,1 C
20.07.2019 04:21 15,1 C 89 % 1016,2 hPa 0,0 l/m 0,0 km/h (0 Bft) O-NO 69 13,3 C 15,1 C
20.07.2019 04:20 15,2 C 89 % 1016,2 hPa 0,0 l/m 0,0 km/h (0 Bft) O-NO 69 13,4 C 15,2 C
20.07.2019 04:19 15,2 C 90 % 1016,2 hPa 0,0 l/m 0,0 km/h (0 Bft) O-NO 69 13,6 C 15,2 C
20.07.2019 04:18 15,2 C 89 % 1016,2 hPa 0,0 l/m 0,0 km/h (0 Bft) O-NO 69 13,4 C 15,2 C
20.07.2019 04:17 15,3 C 90 % 1016,2 hPa 0,0 l/m 0,0 km/h (0 Bft) O-NO 69 13,7 C 15,3 C
20.07.2019 04:16 15,3 C 90 % 1016,2 hPa 0,0 l/m 0,0 km/h (0 Bft) O-NO 69 13,7 C 15,3 C
20.07.2019 04:15 15,3 C 89 % 1016,3 hPa 0,0 l/m 0,0 km/h (0 Bft) O-NO 69 13,5 C 15,3 C
20.07.2019 04:14 15,3 C 90 % 1016,3 hPa 0,0 l/m 0,0 km/h (0 Bft) O-NO 69 13,7 C 15,3 C
20.07.2019 04:13 15,3 C 90 % 1016,3 hPa 0,0 l/m 0,0 km/h (0 Bft) O-NO 69 13,7 C 15,3 C
20.07.2019 04:12 15,3 C 90 % 1016,3 hPa 0,0 l/m 0,0 km/h (0 Bft) O-NO 69 13,7 C 15,3 C
20.07.2019 04:11 15,3 C 90 % 1016,3 hPa 0,0 l/m 0,0 km/h (0 Bft) O-NO 69 13,7 C 15,3 C
20.07.2019 04:10 15,4 C 90 % 1016,3 hPa 0,0 l/m 0,0 km/h (0 Bft) O-NO 69 13,8 C 15,4 C
20.07.2019 04:09 15,4 C 90 % 1016,2 hPa 0,0 l/m 0,0 km/h (0 Bft) O-NO 69 13,8 C 15,4 C
20.07.2019 04:08 15,4 C 90 % 1016,2 hPa 0,0 l/m 0,0 km/h (0 Bft) O-NO 69 13,8 C 15,4 C
20.07.2019 04:07 15,4 C 90 % 1016,2 hPa 0,0 l/m 0,0 km/h (0 Bft) O-NO 69 13,8 C 15,4 C
20.07.2019 04:06 15,4 C 90 % 1016,2 hPa 0,0 l/m 0,0 km/h (0 Bft) O-NO 69 13,8 C 15,4 C
20.07.2019 04:05 15,4 C 90 % 1016,2 hPa 0,0 l/m 0,0 km/h (0 Bft) O-NO 69 13,8 C 15,4 C
20.07.2019 04:04 15,4 C 90 % 1016,2 hPa 0,0 l/m 0,0 km/h (0 Bft) O-NO 69 13,8 C 15,4 C
20.07.2019 04:03 15,4 C 90 % 1016,3 hPa 0,0 l/m 0,0 km/h (0 Bft) O-NO 69 13,8 C 15,4 C
20.07.2019 04:02 15,4 C 90 % 1016,2 hPa 0,0 l/m 0,0 km/h (0 Bft) O-NO 69 13,8 C 15,4 C
20.07.2019 04:01 15,4 C 90 % 1016,2 hPa 0,0 l/m 0,0 km/h (0 Bft) O-NO 69 13,8 C 15,4 C
20.07.2019 04:00 15,4 C 90 % 1016,2 hPa 0,0 l/m 0,0 km/h (0 Bft) O-NO 69 13,8 C 15,4 C
20.07.2019 03:59 15,4 C 90 % 1016,2 hPa 0,0 l/m 0,0 km/h (0 Bft) O-NO 69 13,8 C 15,4 C
20.07.2019 03:58 15,5 C 89 % 1016,2 hPa 0,0 l/m 0,0 km/h (0 Bft) O-NO 69 13,7 C 15,5 C
20.07.2019 03:57 15,5 C 90 % 1016,2 hPa 0,0 l/m 0,0 km/h (0 Bft) O-NO 69 13,9 C 15,5 C
20.07.2019 03:56 15,5 C 90 % 1016,2 hPa 0,0 l/m 0,0 km/h (0 Bft) O-NO 69 13,9 C 15,5 C
20.07.2019 03:55 15,5 C 90 % 1016,2 hPa 0,0 l/m 0,0 km/h (0 Bft) O-NO 69 13,9 C 15,5 C
20.07.2019 03:54 15,5 C 90 % 1016,2 hPa 0,0 l/m 0,0 km/h (0 Bft) O-NO 69 13,9 C 15,5 C
20.07.2019 03:53 15,5 C 90 % 1016,2 hPa 0,0 l/m 0,0 km/h (0 Bft) O-NO 69 13,9 C 15,5 C
20.07.2019 03:52 15,5 C 90 % 1016,2 hPa 0,0 l/m 0,0 km/h (0 Bft) O-NO 69 13,9 C 15,5 C
20.07.2019 03:51 15,5 C 90 % 1016,2 hPa 0,0 l/m 0,0 km/h (0 Bft) O-NO 69 13,9 C 15,5 C
20.07.2019 03:50 15,5 C 90 % 1016,2 hPa 0,0 l/m 0,0 km/h (0 Bft) O-NO 69 13,9 C 15,5 C
20.07.2019 03:49 15,5 C 90 % 1016,2 hPa 0,0 l/m 0,0 km/h (0 Bft) O-NO 69 13,9 C 15,5 C
20.07.2019 03:48 15,5 C 90 % 1016,2 hPa 0,0 l/m 0,0 km/h (0 Bft) O-NO 69 13,9 C 15,5 C
20.07.2019 03:47 15,5 C 90 % 1016,2 hPa 0,0 l/m 0,0 km/h (0 Bft) O-NO 69 13,9 C 15,5 C
20.07.2019 03:46 15,5 C 90 % 1016,1 hPa 0,0 l/m 0,0 km/h (0 Bft) O-NO 69 13,9 C 15,5 C
20.07.2019 03:45 15,5 C 90 % 1016,2 hPa 0,0 l/m 0,0 km/h (0 Bft) O-NO 69 13,9 C 15,5 C
20.07.2019 03:44 15,5 C 90 % 1016,2 hPa 0,0 l/m 0,0 km/h (0 Bft) O-NO 69 13,9 C 15,5 C
20.07.2019 03:43 15,6 C 90 % 1016,1 hPa 0,0 l/m 0,0 km/h (0 Bft) O-NO 69 14,0 C 15,6 C
20.07.2019 03:42 15,6 C 90 % 1016,1 hPa 0,0 l/m 0,0 km/h (0 Bft) O-NO 69 14,0 C 15,6 C
20.07.2019 03:41 15,6 C 90 % 1016,1 hPa 0,0 l/m 0,0 km/h (0 Bft) O-NO 69 14,0 C 15,6 C
20.07.2019 03:40 15,6 C 90 % 1016,1 hPa 0,0 l/m 0,0 km/h (0 Bft) O-NO 69 14,0 C 15,6 C
20.07.2019 03:39 15,6 C 90 % 1016,1 hPa 0,0 l/m 0,0 km/h (0 Bft) O-NO 69 14,0 C 15,6 C
20.07.2019 03:38 15,6 C 90 % 1016,1 hPa 0,0 l/m 0,0 km/h (0 Bft) O-NO 69 14,0 C 15,6 C
20.07.2019 03:37 15,6 C 90 % 1016,1 hPa 0,0 l/m 0,0 km/h (0 Bft) O-NO 69 14,0 C 15,6 C
20.07.2019 03:36 15,6 C 90 % 1016,1 hPa 0,0 l/m 0,0 km/h (0 Bft) O-NO 69 14,0 C 15,6 C
20.07.2019 03:35 15,6 C 90 % 1016,1 hPa 0,0 l/m 0,0 km/h (0 Bft) O-NO 69 14,0 C 15,6 C
20.07.2019 03:34 15,6 C 90 % 1016,1 hPa 0,0 l/m 0,0 km/h (0 Bft) O-NO 69 14,0 C 15,6 C
20.07.2019 03:33 15,6 C 90 % 1016,1 hPa 0,0 l/m 0,0 km/h (0 Bft) O-NO 69 14,0 C 15,6 C
20.07.2019 03:32 15,6 C 90 % 1016,1 hPa 0,0 l/m 0,0 km/h (0 Bft) O-NO 69 14,0 C 15,6 C
20.07.2019 03:31 15,6 C 90 % 1016,2 hPa 0,0 l/m 0,0 km/h (0 Bft) O-NO 69 14,0 C 15,6 C
20.07.2019 03:30 15,6 C 90 % 1016,2 hPa 0,0 l/m 0,0 km/h (0 Bft) O-NO 69 14,0 C 15,6 C
20.07.2019 03:29 15,6 C 90 % 1016,1 hPa 0,0 l/m 0,0 km/h (0 Bft) O-NO 69 14,0 C 15,6 C
20.07.2019 03:28 15,6 C 90 % 1016,2 hPa 0,0 l/m 0,0 km/h (0 Bft) O-NO 69 14,0 C 15,6 C
20.07.2019 03:27 15,6 C 89 % 1016,1 hPa 0,0 l/m 0,0 km/h (0 Bft) O-NO 69 13,8 C 15,6 C
20.07.2019 03:26 15,6 C 89 % 1016,2 hPa 0,0 l/m 0,0 km/h (0 Bft) O-NO 69 13,8 C 15,6 C
20.07.2019 03:25 15,6 C 89 % 1016,2 hPa 0,0 l/m 0,0 km/h (0 Bft) O-NO 69 13,8 C 15,6 C
20.07.2019 03:24 15,6 C 89 % 1016,1 hPa 0,0 l/m 0,0 km/h (0 Bft) O-NO 69 13,8 C 15,6 C
20.07.2019 03:23 15,6 C 89 % 1016,1 hPa 0,0 l/m 0,0 km/h (0 Bft) O-NO 69 13,8 C 15,6 C
20.07.2019 03:22 15,6 C 89 % 1016,2 hPa 0,0 l/m 0,0 km/h (0 Bft) O-NO 69 13,8 C 15,6 C
20.07.2019 03:21 15,6 C 89 % 1016,2 hPa 0,0 l/m 0,0 km/h (0 Bft) O-NO 69 13,8 C 15,6 C
20.07.2019 03:20 15,6 C 89 % 1016,2 hPa 0,0 l/m 0,0 km/h (0 Bft) O-NO 69 13,8 C 15,6 C
20.07.2019 03:19 15,6 C 89 % 1016,1 hPa 0,0 l/m 0,0 km/h (0 Bft) O-NO 69 13,8 C 15,6 C
20.07.2019 03:18 15,6 C 89 % 1016,2 hPa 0,0 l/m 0,0 km/h (0 Bft) O-NO 69 13,8 C 15,6 C
20.07.2019 03:17 15,6 C 89 % 1016,2 hPa 0,0 l/m 0,0 km/h (0 Bft) O-NO 69 13,8 C 15,6 C
20.07.2019 03:16 15,6 C 89 % 1016,2 hPa 0,0 l/m 0,0 km/h (0 Bft) O-NO 69 13,8 C 15,6 C
20.07.2019 03:15 15,6 C 89 % 1016,2 hPa 0,0 l/m 0,0 km/h (0 Bft) O-NO 69 13,8 C 15,6 C
20.07.2019 03:14 15,6 C 89 % 1016,2 hPa 0,0 l/m 0,0 km/h (0 Bft) O-NO 69 13,8 C 15,6 C
20.07.2019 03:13 15,6 C 89 % 1016,2 hPa 0,0 l/m 0,0 km/h (0 Bft) O-NO 69 13,8 C 15,6 C
20.07.2019 03:12 15,6 C 89 % 1016,2 hPa 0,0 l/m 0,0 km/h (0 Bft) O-NO 69 13,8 C 15,6 C
20.07.2019 03:11 15,6 C 89 % 1016,2 hPa 0,0 l/m 0,0 km/h (0 Bft) O-NO 69 13,8 C 15,6 C
20.07.2019 03:10 15,6 C 89 % 1016,2 hPa 0,0 l/m 0,0 km/h (0 Bft) O-NO 69 13,8 C 15,6 C
20.07.2019 03:09 15,7 C 89 % 1016,2 hPa 0,0 l/m 0,0 km/h (0 Bft) O-NO 69 13,9 C 15,7 C
20.07.2019 03:08 15,6 C 89 % 1016,2 hPa 0,0 l/m 0,0 km/h (0 Bft) O-NO 69 13,8 C 15,6 C
20.07.2019 03:07 15,6 C 89 % 1016,2 hPa 0,0 l/m 0,0 km/h (0 Bft) O-NO 69 13,8 C 15,6 C
20.07.2019 03:06 15,7 C 89 % 1016,2 hPa 0,0 l/m 0,0 km/h (0 Bft) O-NO 69 13,9 C 15,7 C
20.07.2019 03:05 15,7 C 89 % 1016,3 hPa 0,0 l/m 0,0 km/h (0 Bft) O-NO 69 13,9 C 15,7 C
20.07.2019 03:04 15,7 C 89 % 1016,3 hPa 0,0 l/m 0,0 km/h (0 Bft) O-NO 69 13,9 C 15,7 C
20.07.2019 03:03 15,7 C 88 % 1016,3 hPa 0,0 l/m 0,0 km/h (0 Bft) O-NO 69 13,7 C 15,7 C
20.07.2019 03:02 15,7 C 89 % 1016,3 hPa 0,0 l/m 0,0 km/h (0 Bft) O-NO 69 13,9 C 15,7 C
20.07.2019 03:01 15,7 C 88 % 1016,3 hPa 0,0 l/m 0,0 km/h (0 Bft) O-NO 69 13,7 C 15,7 C
20.07.2019 03:00 15,7 C 88 % 1016,3 hPa 0,0 l/m 0,0 km/h (0 Bft) O-NO 69 13,7 C 15,7 C
20.07.2019 02:59 15,7 C 88 % 1016,3 hPa 0,0 l/m 0,0 km/h (0 Bft) O-NO 69 13,7 C 15,7 C
20.07.2019 02:58 15,7 C 89 % 1016,3 hPa 0,0 l/m 0,0 km/h (0 Bft) O-NO 69 13,9 C 15,7 C
20.07.2019 02:57 15,8 C 89 % 1016,3 hPa 0,0 l/m 0,0 km/h (0 Bft) O-NO 69 14,0 C 15,8 C
20.07.2019 02:56 15,8 C 89 % 1016,3 hPa 0,0 l/m 0,0 km/h (0 Bft) O-NO 69 14,0 C 15,8 C
20.07.2019 02:55 15,8 C 89 % 1016,3 hPa 0,0 l/m 0,0 km/h (0 Bft) O-NO 69 14,0 C 15,8 C
20.07.2019 02:54 15,8 C 89 % 1016,3 hPa 0,0 l/m 0,0 km/h (0 Bft) O-NO 69 14,0 C 15,8 C
20.07.2019 02:53 15,8 C 89 % 1016,3 hPa 0,0 l/m 0,0 km/h (0 Bft) O-NO 69 14,0 C 15,8 C
20.07.2019 02:52 15,8 C 89 % 1016,3 hPa 0,0 l/m 0,0 km/h (0 Bft) O-NO 69 14,0 C 15,8 C
20.07.2019 02:51 15,8 C 88 % 1016,3 hPa 0,0 l/m 0,0 km/h (0 Bft) O-NO 69 13,8 C 15,8 C
20.07.2019 02:50 15,8 C 88 % 1016,3 hPa 0,0 l/m 0,0 km/h (0 Bft) O-NO 69 13,8 C 15,8 C
20.07.2019 02:49 15,8 C 88 % 1016,3 hPa 0,0 l/m 0,0 km/h (0 Bft) O-NO 69 13,8 C 15,8 C
20.07.2019 02:48 15,8 C 88 % 1016,3 hPa 0,0 l/m 0,0 km/h (0 Bft) O-NO 69 13,8 C 15,8 C
20.07.2019 02:47 15,8 C 88 % 1016,3 hPa 0,0 l/m 0,0 km/h (0 Bft) O-NO 69 13,8 C 15,8 C
20.07.2019 02:46 15,8 C 88 % 1016,3 hPa 0,0 l/m 0,0 km/h (0 Bft) O-NO 69 13,8 C 15,8 C
20.07.2019 02:45 15,8 C 88 % 1016,3 hPa 0,0 l/m 0,0 km/h (0 Bft) O-NO 69 13,8 C 15,8 C
20.07.2019 02:44 15,9 C 88 % 1016,3 hPa 0,0 l/m 0,0 km/h (0 Bft) O-NO 69 13,9 C 15,9 C
20.07.2019 02:43 15,9 C 88 % 1016,3 hPa 0,0 l/m 0,0 km/h (0 Bft) O-NO 69 13,9 C 15,9 C
20.07.2019 02:42 15,9 C 88 % 1016,3 hPa 0,0 l/m 0,0 km/h (0 Bft) O-NO 69 13,9 C 15,9 C
20.07.2019 02:41 15,9 C 88 % 1016,3 hPa 0,0 l/m 0,0 km/h (0 Bft) O-NO 69 13,9 C 15,9 C
20.07.2019 02:40 15,9 C 88 % 1016,3 hPa 0,0 l/m 0,0 km/h (0 Bft) O-NO 69 13,9 C 15,9 C
20.07.2019 02:39 15,9 C 88 % 1016,3 hPa 0,0 l/m 0,0 km/h (0 Bft) O-NO 69 13,9 C 15,9 C
20.07.2019 02:38 15,9 C 88 % 1016,3 hPa 0,0 l/m 0,0 km/h (0 Bft) O-NO 69 13,9 C 15,9 C
20.07.2019 02:37 15,9 C 88 % 1016,3 hPa 0,0 l/m 0,0 km/h (0 Bft) O-NO 69 13,9 C 15,9 C
20.07.2019 02:36 15,9 C 88 % 1016,3 hPa 0,0 l/m 0,0 km/h (0 Bft) O-NO 69 13,9 C 15,9 C
20.07.2019 02:35 15,9 C 88 % 1016,3 hPa 0,0 l/m 0,0 km/h (0 Bft) O-NO 69 13,9 C 15,9 C
20.07.2019 02:34 15,9 C 88 % 1016,3 hPa 0,0 l/m 0,0 km/h (0 Bft) O-NO 69 13,9 C 15,9 C
20.07.2019 02:33 16,0 C 88 % 1016,3 hPa 0,0 l/m 0,0 km/h (0 Bft) O-NO 69 14,0 C 16,0 C
20.07.2019 02:32 16,0 C 88 % 1016,3 hPa 0,0 l/m 0,0 km/h (0 Bft) O-NO 69 14,0 C 16,0 C
20.07.2019 02:31 16,0 C 88 % 1016,3 hPa 0,0 l/m 0,0 km/h (0 Bft) O-NO 69 14,0 C 16,0 C
20.07.2019 02:30 16,0 C 88 % 1016,3 hPa 0,0 l/m 0,0 km/h (0 Bft) O-NO 69 14,0 C 16,0 C
20.07.2019 02:29 16,0 C 88 % 1016,3 hPa 0,0 l/m 0,0 km/h (0 Bft) O-NO 69 14,0 C 16,0 C
20.07.2019 02:28 16,0 C 88 % 1016,3 hPa 0,0 l/m 0,0 km/h (0 Bft) O-NO 69 14,0 C 16,0 C
20.07.2019 02:27 16,0 C 88 % 1016,3 hPa 0,0 l/m 0,0 km/h (0 Bft) O-NO 69 14,0 C 16,0 C
20.07.2019 02:26 16,0 C 88 % 1016,3 hPa 0,0 l/m 0,0 km/h (0 Bft) O-NO 69 14,0 C 16,0 C
20.07.2019 02:25 16,0 C 88 % 1016,3 hPa 0,0 l/m 0,0 km/h (0 Bft) O-NO 69 14,0 C 16,0 C
20.07.2019 02:24 16,0 C 88 % 1016,3 hPa 0,0 l/m 0,0 km/h (0 Bft) O-NO 69 14,0 C 16,0 C
20.07.2019 02:23 16,0 C 88 % 1016,3 hPa 0,0 l/m 0,0 km/h (0 Bft) O-NO 69 14,0 C 16,0 C
20.07.2019 02:22 16,0 C 88 % 1016,3 hPa 0,0 l/m 0,0 km/h (0 Bft) O-NO 69 14,0 C 16,0 C
20.07.2019 02:21 16,0 C 88 % 1016,3 hPa 0,0 l/m 0,0 km/h (0 Bft) O-NO 69 14,0 C 16,0 C
20.07.2019 02:20 16,0 C 88 % 1016,3 hPa 0,0 l/m 0,0 km/h (0 Bft) O-NO 69 14,0 C 16,0 C
20.07.2019 02:19 16,1 C 87 % 1016,3 hPa 0,0 l/m 0,0 km/h (0 Bft) O-NO 69 13,9 C 16,1 C
20.07.2019 02:18 16,1 C 87 % 1016,3 hPa 0,0 l/m 0,0 km/h (0 Bft) O-NO 69 13,9 C 16,1 C
20.07.2019 02:17 16,1 C 87 % 1016,3 hPa 0,0 l/m 0,0 km/h (0 Bft) O-NO 69 13,9 C 16,1 C
20.07.2019 02:16 16,1 C 87 % 1016,3 hPa 0,0 l/m 0,0 km/h (0 Bft) O-NO 69 13,9 C 16,1 C
20.07.2019 02:15 16,1 C 87 % 1016,3 hPa 0,0 l/m 0,0 km/h (0 Bft) O-NO 69 13,9 C 16,1 C
20.07.2019 02:14 16,1 C 87 % 1016,3 hPa 0,0 l/m 0,0 km/h (0 Bft) O-NO 69 13,9 C 16,1 C
20.07.2019 02:13 16,1 C 87 % 1016,4 hPa 0,0 l/m 0,0 km/h (0 Bft) O-NO 69 13,9 C 16,1 C
20.07.2019 02:12 16,1 C 87 % 1016,4 hPa 0,0 l/m 0,0 km/h (0 Bft) O-NO 69 13,9 C 16,1 C
20.07.2019 02:11 16,1 C 87 % 1016,4 hPa 0,0 l/m 0,0 km/h (0 Bft) O-NO 69 13,9 C 16,1 C
20.07.2019 02:10 16,1 C 87 % 1016,4 hPa 0,0 l/m 0,0 km/h (0 Bft) O-NO 69 13,9 C 16,1 C
20.07.2019 02:09 16,1 C 87 % 1016,3 hPa 0,0 l/m 0,0 km/h (0 Bft) O-NO 69 13,9 C 16,1 C
20.07.2019 02:08 16,1 C 87 % 1016,4 hPa 0,0 l/m 0,0 km/h (0 Bft) O-NO 69 13,9 C 16,1 C
20.07.2019 02:07 16,2 C 87 % 1016,4 hPa 0,0 l/m 0,0 km/h (0 Bft) O-NO 69 14,0 C 16,2 C
20.07.2019 02:06 16,2 C 87 % 1016,4 hPa 0,0 l/m 0,0 km/h (0 Bft) O-NO 69 14,0 C 16,2 C
20.07.2019 02:05 16,2 C 87 % 1016,4 hPa 0,0 l/m 0,0 km/h (0 Bft) O-NO 69 14,0 C 16,2 C
20.07.2019 02:04 16,2 C 87 % 1016,4 hPa 0,0 l/m 0,0 km/h (0 Bft) O-NO 69 14,0 C 16,2 C
20.07.2019 02:03 16,2 C 87 % 1016,4 hPa 0,0 l/m 0,0 km/h (0 Bft) O-NO 69 14,0 C 16,2 C
20.07.2019 02:02 16,3 C 87 % 1016,4 hPa 0,0 l/m 0,0 km/h (0 Bft) O-NO 69 14,1 C 16,3 C
20.07.2019 02:01 16,3 C 86 % 1016,4 hPa 0,0 l/m 0,0 km/h (0 Bft) O-NO 69 14,0 C 16,3 C
20.07.2019 02:00 16,3 C 86 % 1016,4 hPa 0,0 l/m 0,0 km/h (0 Bft) O-NO 69 14,0 C 16,3 C
20.07.2019 01:59 16,3 C 86 % 1016,4 hPa 0,0 l/m 0,0 km/h (0 Bft) O-NO 69 14,0 C 16,3 C
20.07.2019 01:58 16,3 C 86 % 1016,4 hPa 0,0 l/m 0,0 km/h (0 Bft) O-NO 69 14,0 C 16,3 C
20.07.2019 01:57 16,3 C 86 % 1016,4 hPa 0,0 l/m 0,0 km/h (0 Bft) O-NO 69 14,0 C 16,3 C
20.07.2019 01:56 16,3 C 86 % 1016,4 hPa 0,0 l/m 0,0 km/h (0 Bft) O-NO 69 14,0 C 16,3 C
20.07.2019 01:55 16,3 C 86 % 1016,3 hPa 0,0 l/m 0,0 km/h (0 Bft) O-NO 69 14,0 C 16,3 C
20.07.2019 01:54 16,3 C 86 % 1016,4 hPa 0,0 l/m 0,0 km/h (0 Bft) O-NO 69 14,0 C 16,3 C
20.07.2019 01:53 16,3 C 86 % 1016,4 hPa 0,0 l/m 0,0 km/h (0 Bft) O-NO 69 14,0 C 16,3 C
20.07.2019 01:52 16,3 C 86 % 1016,3 hPa 0,0 l/m 0,0 km/h (0 Bft) O-NO 69 14,0 C 16,3 C
20.07.2019 01:51 16,4 C 86 % 1016,3 hPa 0,0 l/m 0,0 km/h (0 Bft) O-NO 69 14,1 C 16,4 C
20.07.2019 01:50 16,4 C 85 % 1016,4 hPa 0,0 l/m 0,0 km/h (0 Bft) O-NO 69 13,9 C 16,4 C
20.07.2019 01:49 16,4 C 85 % 1016,4 hPa 0,0 l/m 0,0 km/h (0 Bft) O-NO 69 13,9 C 16,4 C
20.07.2019 01:48 16,4 C 85 % 1016,4 hPa 0,0 l/m 0,0 km/h (0 Bft) O-NO 69 13,9 C 16,4 C
20.07.2019 01:47 16,4 C 85 % 1016,4 hPa 0,0 l/m 0,0 km/h (0 Bft) O-NO 69 13,9 C 16,4 C
20.07.2019 01:46 16,4 C 85 % 1016,4 hPa 0,0 l/m 0,0 km/h (0 Bft) O-NO 69 13,9 C 16,4 C
20.07.2019 01:45 16,5 C 85 % 1016,4 hPa 0,0 l/m 0,0 km/h (0 Bft) O-NO 69 14,0 C 16,5 C
20.07.2019 01:44 16,5 C 85 % 1016,4 hPa 0,0 l/m 0,0 km/h (0 Bft) O-NO 69 14,0 C 16,5 C
20.07.2019 01:43 16,5 C 85 % 1016,4 hPa 0,0 l/m 0,0 km/h (0 Bft) O-NO 69 14,0 C 16,5 C
20.07.2019 01:42 16,5 C 85 % 1016,4 hPa 0,0 l/m 0,0 km/h (0 Bft) O-NO 69 14,0 C 16,5 C
20.07.2019 01:41 16,5 C 85 % 1016,5 hPa 0,0 l/m 0,0 km/h (0 Bft) O-NO 69 14,0 C 16,5 C
20.07.2019 01:40 16,5 C 85 % 1016,5 hPa 0,0 l/m 0,0 km/h (0 Bft) O-NO 69 14,0 C 16,5 C
20.07.2019 01:39 16,5 C 85 % 1016,4 hPa 0,0 l/m 0,0 km/h (0 Bft) O-NO 69 14,0 C 16,5 C
20.07.2019 01:38 16,6 C 85 % 1016,4 hPa 0,0 l/m 0,0 km/h (0 Bft) O-NO 69 14,1 C 16,6 C
20.07.2019 01:37 16,6 C 85 % 1016,4 hPa 0,0 l/m 0,0 km/h (0 Bft) O-NO 69 14,1 C 16,6 C
20.07.2019 01:36 16,6 C 85 % 1016,4 hPa 0,0 l/m 0,0 km/h (0 Bft) O-NO 69 14,1 C 16,6 C
20.07.2019 01:35 16,6 C 85 % 1016,5 hPa 0,0 l/m 0,0 km/h (0 Bft) O-NO 69 14,1 C 16,6 C
20.07.2019 01:34 16,6 C 85 % 1016,5 hPa 0,0 l/m 0,0 km/h (0 Bft) O-NO 69 14,1 C 16,6 C
20.07.2019 01:33 16,7 C 85 % 1016,5 hPa 0,0 l/m 0,0 km/h (0 Bft) O-NO 69 14,2 C 16,7 C
20.07.2019 01:32 16,7 C 85 % 1016,5 hPa 0,0 l/m 0,0 km/h (0 Bft) O-NO 69 14,2 C 16,7 C
20.07.2019 01:31 16,7 C 85 % 1016,5 hPa 0,0 l/m 0,0 km/h (0 Bft) O-NO 69 14,2 C 16,7 C
20.07.2019 01:30 16,8 C 85 % 1016,5 hPa 0,0 l/m 0,0 km/h (0 Bft) O-NO 69 14,3 C 16,8 C
20.07.2019 01:29 16,8 C 85 % 1016,5 hPa 0,0 l/m 0,0 km/h (0 Bft) O-NO 69 14,3 C 16,8 C
20.07.2019 01:28 16,8 C 85 % 1016,5 hPa 0,0 l/m 0,0 km/h (0 Bft) O-NO 69 14,3 C 16,8 C
20.07.2019 01:27 16,8 C 85 % 1016,5 hPa 0,0 l/m 0,0 km/h (0 Bft) O-NO 69 14,3 C 16,8 C
20.07.2019 01:26 16,8 C 85 % 1016,5 hPa 0,0 l/m 0,0 km/h (0 Bft) O-NO 69 14,3 C 16,8 C
20.07.2019 01:25 16,8 C 85 % 1016,4 hPa 0,0 l/m 0,0 km/h (0 Bft) O-NO 69 14,3 C 16,8 C
20.07.2019 01:24 16,9 C 85 % 1016,4 hPa 0,0 l/m 0,0 km/h (0 Bft) O-NO 69 14,4 C 16,9 C
20.07.2019 01:23 16,9 C 84 % 1016,4 hPa 0,0 l/m 0,0 km/h (0 Bft) O-NO 69 14,2 C 16,9 C
20.07.2019 01:22 16,9 C 84 % 1016,4 hPa 0,0 l/m 0,0 km/h (0 Bft) O-NO 69 14,2 C 16,9 C
20.07.2019 01:21 16,9 C 85 % 1016,5 hPa 0,0 l/m 0,0 km/h (0 Bft) O-NO 69 14,4 C 16,9 C
20.07.2019 01:20 16,9 C 84 % 1016,5 hPa 0,0 l/m 0,0 km/h (0 Bft) O-NO 69 14,2 C 16,9 C
20.07.2019 01:19 16,9 C 84 % 1016,5 hPa 0,0 l/m 0,0 km/h (0 Bft) O-NO 69 14,2 C 16,9 C
20.07.2019 01:18 16,9 C 84 % 1016,5 hPa 0,0 l/m 0,0 km/h (0 Bft) O-NO 69 14,2 C 16,9 C
20.07.2019 01:17 16,9 C 84 % 1016,5 hPa 0,0 l/m 0,0 km/h (0 Bft) O-NO 69 14,2 C 16,9 C
20.07.2019 01:16 17,0 C 84 % 1016,5 hPa 0,0 l/m 0,0 km/h (0 Bft) O-NO 69 14,3 C 17,0 C
20.07.2019 01:15 17,0 C 84 % 1016,5 hPa 0,0 l/m 0,0 km/h (0 Bft) O-NO 69 14,3 C 17,0 C
20.07.2019 01:14 17,0 C 84 % 1016,5 hPa 0,0 l/m 0,0 km/h (0 Bft) O-NO 69 14,3 C 17,0 C
20.07.2019 01:13 17,0 C 84 % 1016,4 hPa 0,0 l/m 0,0 km/h (0 Bft) O-NO 69 14,3 C 17,0 C
20.07.2019 01:12 17,0 C 84 % 1016,5 hPa 0,0 l/m 0,0 km/h (0 Bft) O-NO 69 14,3 C 17,0 C
20.07.2019 01:11 17,0 C 84 % 1016,5 hPa 0,0 l/m 0,0 km/h (0 Bft) O-NO 69 14,3 C 17,0 C
20.07.2019 01:10 17,0 C 84 % 1016,5 hPa 0,0 l/m 0,0 km/h (0 Bft) O-NO 69 14,3 C 17,0 C
20.07.2019 01:09 17,0 C 84 % 1016,5 hPa 0,0 l/m 0,0 km/h (0 Bft) O-NO 69 14,3 C 17,0 C
20.07.2019 01:08 17,1 C 84 % 1016,5 hPa 0,0 l/m 0,0 km/h (0 Bft) O-NO 69 14,4 C 17,1 C
20.07.2019 01:07 17,1 C 84 % 1016,5 hPa 0,0 l/m 0,0 km/h (0 Bft) O-NO 69 14,4 C 17,1 C
20.07.2019 01:06 17,1 C 84 % 1016,5 hPa 0,0 l/m 0,0 km/h (0 Bft) O-NO 69 14,4 C 17,1 C
20.07.2019 01:05 17,1 C 84 % 1016,5 hPa 0,0 l/m 0,0 km/h (0 Bft) O-NO 69 14,4 C 17,1 C
20.07.2019 01:04 17,1 C 84 % 1016,5 hPa 0,0 l/m 0,0 km/h (0 Bft) O-NO 69 14,4 C 17,1 C
20.07.2019 01:03 17,1 C 84 % 1016,5 hPa 0,0 l/m 0,0 km/h (0 Bft) O-NO 69 14,4 C 17,1 C
20.07.2019 01:02 17,1 C 84 % 1016,5 hPa 0,0 l/m 0,0 km/h (0 Bft) O-NO 69 14,4 C 17,1 C
20.07.2019 01:01 17,2 C 84 % 1016,5 hPa 0,0 l/m 0,0 km/h (0 Bft) O-NO 69 14,5 C 17,2 C
20.07.2019 01:00 17,2 C 84 % 1016,5 hPa 0,0 l/m 0,0 km/h (0 Bft) O-NO 69 14,5 C 17,2 C
20.07.2019 00:59 17,2 C 84 % 1016,5 hPa 0,0 l/m 0,0 km/h (0 Bft) O-NO 69 14,5 C 17,2 C
20.07.2019 00:58 17,3 C 84 % 1016,5 hPa 0,0 l/m 0,0 km/h (0 Bft) O-NO 69 14,6 C 17,3 C
20.07.2019 00:57 17,3 C 84 % 1016,5 hPa 0,0 l/m 0,0 km/h (0 Bft) O-NO 69 14,6 C 17,3 C
20.07.2019 00:56 17,3 C 84 % 1016,5 hPa 0,0 l/m 0,0 km/h (0 Bft) O-NO 69 14,6 C 17,3 C
20.07.2019 00:55 17,3 C 84 % 1016,5 hPa 0,0 l/m 0,0 km/h (0 Bft) O-NO 69 14,6 C 17,3 C
20.07.2019 00:54 17,3 C 84 % 1016,5 hPa 0,0 l/m 0,0 km/h (0 Bft) O-NO 69 14,6 C 17,3 C
20.07.2019 00:53 17,3 C 84 % 1016,5 hPa 0,0 l/m 0,0 km/h (0 Bft) O-NO 69 14,6 C 17,3 C
20.07.2019 00:52 17,4 C 84 % 1016,5 hPa 0,0 l/m 0,0 km/h (0 Bft) O-NO 69 14,7 C 17,4 C
20.07.2019 00:51 17,4 C 83 % 1016,5 hPa 0,0 l/m 0,0 km/h (0 Bft) O-NO 69 14,5 C 17,4 C
20.07.2019 00:50 17,4 C 83 % 1016,4 hPa 0,0 l/m 0,0 km/h (0 Bft) O-NO 69 14,5 C 17,4 C
20.07.2019 00:49 17,4 C 83 % 1016,4 hPa 0,0 l/m 0,0 km/h (0 Bft) O-NO 69 14,5 C 17,4 C
20.07.2019 00:48 17,4 C 83 % 1016,4 hPa 0,0 l/m 0,0 km/h (0 Bft) O-NO 69 14,5 C 17,4 C
20.07.2019 00:47 17,4 C 83 % 1016,4 hPa 0,0 l/m 0,0 km/h (0 Bft) O-NO 69 14,5 C 17,4 C
20.07.2019 00:46 17,5 C 83 % 1016,4 hPa 0,0 l/m 0,0 km/h (0 Bft) O-NO 69 14,6 C 17,5 C
20.07.2019 00:45 17,5 C 83 % 1016,4 hPa 0,0 l/m 0,0 km/h (0 Bft) O-NO 69 14,6 C 17,5 C
20.07.2019 00:44 17,5 C 83 % 1016,4 hPa 0,0 l/m 0,0 km/h (0 Bft) O-NO 69 14,6 C 17,5 C
20.07.2019 00:43 17,5 C 83 % 1016,4 hPa 0,0 l/m 0,0 km/h (0 Bft) O-NO 69 14,6 C 17,5 C
20.07.2019 00:42 17,5 C 83 % 1016,4 hPa 0,0 l/m 0,0 km/h (0 Bft) O-NO 69 14,6 C 17,5 C
20.07.2019 00:41 17,5 C 83 % 1016,4 hPa 0,0 l/m 0,0 km/h (0 Bft) O-NO 69 14,6 C 17,5 C
20.07.2019 00:40 17,5 C 83 % 1016,4 hPa 0,0 l/m 0,0 km/h (0 Bft) O-NO 69 14,6 C 17,5 C
20.07.2019 00:39 17,5 C 83 % 1016,4 hPa 0,0 l/m 0,0 km/h (0 Bft) O-NO 69 14,6 C 17,5 C
20.07.2019 00:38 17,6 C 83 % 1016,4 hPa 0,0 l/m 0,0 km/h (0 Bft) O-NO 69 14,7 C 17,6 C
20.07.2019 00:37 17,6 C 83 % 1016,4 hPa 0,0 l/m 0,0 km/h (0 Bft) O-NO 69 14,7 C 17,6 C
20.07.2019 00:36 17,6 C 83 % 1016,4 hPa 0,0 l/m 0,0 km/h (0 Bft) O-NO 69 14,7 C 17,6 C
20.07.2019 00:35 17,6 C 83 % 1016,3 hPa 0,0 l/m 0,0 km/h (0 Bft) O-NO 69 14,7 C 17,6 C
20.07.2019 00:34 17,6 C 83 % 1016,4 hPa 0,0 l/m 0,0 km/h (0 Bft) O-NO 69 14,7 C 17,6 C
20.07.2019 00:33 17,6 C 83 % 1016,4 hPa 0,0 l/m 0,0 km/h (0 Bft) O-NO 69 14,7 C 17,6 C
20.07.2019 00:32 17,6 C 82 % 1016,4 hPa 0,0 l/m 0,0 km/h (0 Bft) O-NO 69 14,5 C 17,6 C
20.07.2019 00:31 17,7 C 82 % 1016,4 hPa 0,0 l/m 0,0 km/h (0 Bft) O-NO 69 14,6 C 17,7 C
20.07.2019 00:30 17,7 C 82 % 1016,4 hPa 0,0 l/m 0,0 km/h (0 Bft) O-NO 69 14,6 C 17,7 C
20.07.2019 00:29 17,7 C 82 % 1016,3 hPa 0,0 l/m 0,0 km/h (0 Bft) O-NO 69 14,6 C 17,7 C
20.07.2019 00:28 17,8 C 82 % 1016,4 hPa 0,0 l/m 0,0 km/h (0 Bft) O-NO 69 14,7 C 17,8 C
20.07.2019 00:27 17,8 C 82 % 1016,4 hPa 0,0 l/m 0,0 km/h (0 Bft) O-NO 69 14,7 C 17,8 C
20.07.2019 00:26 17,8 C 82 % 1016,4 hPa 0,0 l/m 0,0 km/h (0 Bft) O-NO 69 14,7 C 17,8 C
20.07.2019 00:25 17,8 C 82 % 1016,4 hPa 0,0 l/m 0,0 km/h (0 Bft) O-NO 69 14,7 C 17,8 C
20.07.2019 00:24 17,8 C 82 % 1016,3 hPa 0,0 l/m 0,0 km/h (0 Bft) O-NO 69 14,7 C 17,8 C
20.07.2019 00:23 17,8 C 82 % 1016,4 hPa 0,0 l/m 0,0 km/h (0 Bft) O-NO 69 14,7 C 17,8 C
20.07.2019 00:22 17,9 C 82 % 1016,3 hPa 0,0 l/m 0,0 km/h (0 Bft) O-NO 69 14,8 C 17,9 C
20.07.2019 00:21 17,9 C 82 % 1016,3 hPa 0,0 l/m 0,0 km/h (0 Bft) O-NO 69 14,8 C 17,9 C
20.07.2019 00:20 17,9 C 82 % 1016,4 hPa 0,0 l/m 0,0 km/h (0 Bft) O-NO 69 14,8 C 17,9 C
20.07.2019 00:19 17,9 C 82 % 1016,4 hPa 0,0 l/m 0,0 km/h (0 Bft) O-NO 69 14,8 C 17,9 C
20.07.2019 00:18 17,9 C 82 % 1016,4 hPa 0,0 l/m 0,0 km/h (0 Bft) O-NO 69 14,8 C 17,9 C
20.07.2019 00:17 17,9 C 82 % 1016,4 hPa 0,0 l/m 0,0 km/h (0 Bft) O-NO 69 14,8 C 17,9 C
20.07.2019 00:16 17,9 C 82 % 1016,4 hPa 0,0 l/m 0,0 km/h (0 Bft) O-NO 69 14,8 C 17,9 C
20.07.2019 00:15 17,9 C 81 % 1016,4 hPa 0,0 l/m 0,0 km/h (0 Bft) O-NO 69 14,6 C 17,9 C
20.07.2019 00:14 17,9 C 81 % 1016,4 hPa 0,0 l/m 0,0 km/h (0 Bft) O-NO 69 14,6 C 17,9 C
20.07.2019 00:13 17,9 C 81 % 1016,4 hPa 0,0 l/m 0,0 km/h (0 Bft) O-NO 69 14,6 C 17,9 C
20.07.2019 00:12 18,0 C 81 % 1016,4 hPa 0,0 l/m 0,0 km/h (0 Bft) O-NO 69 14,7 C 18,0 C
20.07.2019 00:11 18,0 C 81 % 1016,3 hPa 0,0 l/m 0,0 km/h (0 Bft) O-NO 69 14,7 C 18,0 C
20.07.2019 00:10 18,0 C 81 % 1016,4 hPa 0,0 l/m 0,0 km/h (0 Bft) O-NO 69 14,7 C 18,0 C
20.07.2019 00:09 18,0 C 81 % 1016,3 hPa 0,0 l/m 0,0 km/h (0 Bft) O-NO 69 14,7 C 18,0 C
20.07.2019 00:08 18,0 C 81 % 1016,3 hPa 0,0 l/m 0,0 km/h (0 Bft) O-NO 69 14,7 C 18,0 C
20.07.2019 00:07 18,0 C 81 % 1016,3 hPa 0,0 l/m 0,0 km/h (0 Bft) O-NO 69 14,7 C 18,0 C
20.07.2019 00:06 18,0 C 81 % 1016,3 hPa 0,0 l/m 0,0 km/h (0 Bft) O-NO 69 14,7 C 18,0 C
20.07.2019 00:05 18,1 C 81 % 1016,3 hPa 0,0 l/m 0,0 km/h (0 Bft) O-NO 69 14,8 C 18,1 C
20.07.2019 00:04 18,1 C 81 % 1016,3 hPa 0,0 l/m 0,0 km/h (0 Bft) O-NO 69 14,8 C 18,1 C
20.07.2019 00:03 18,1 C 81 % 1016,3 hPa 0,0 l/m 0,0 km/h (0 Bft) O-NO 69 14,8 C 18,1 C
20.07.2019 00:02 18,1 C 81 % 1016,3 hPa 0,0 l/m 0,0 km/h (0 Bft) O-NO 69 14,8 C 18,1 C
20.07.2019 00:01 18,1 C 81 % 1016,3 hPa 0,0 l/m 0,0 km/h (0 Bft) O-NO 69 14,8 C 18,1 C
20.07.2019 00:00 18,1 C 81 % 1016,3 hPa 0,0 l/m 0,0 km/h (0 Bft) O-NO 69 14,8 C 18,1 C
_ Min-Zeit 05:58 10:08 03:19 - 00:00 - - 05:48 05:58
Minimum _ 14,1 C 62 % 1016,1 hPa - 0,0 km/h (0 Bft) - - 12,6 C 14,1 C
_ Max-Zeit 10:09 06:59 07:50 00:00 09:11 - - 09:48 10:09
Maximum _ 24,5 C 94 % 1016,8 hPa 0,0 l/m 8,0 km/h
O-NO (2 Bft)
- - 17,1 C 24,5 C
Durchschnitt _ 17,0 C 85 % 1016,4 hPa #0,0 l/m 0,4 km/h (0 Bft) O-NO - 14,5 C 17,0 C